Wetterdaten: Sonntag, 18.04.2010
Datum Zeit Temp. Innen Temp. Aussen UV X Diff Temp. Feuchte Inne Feuchte Auss Sonnenschein Luftdruck Regen ab 0,1 Wind Sonnenschein Windben
18.04.2010 00:00 17,4 C 7,7 C 0,0 UV-I 0,0 C 42 % 68 % 0 % 1017,4 hPa 0,0 l/m 0,0 km/h (0 Bft) 0 min 0,0 km/h (0 Bft)
18.04.2010 00:02 17,4 C 7,6 C 0,0 UV-I 0,0 C 42 % 68 % 0 % 1017,4 hPa 0,0 l/m 0,0 km/h (0 Bft) 0 min 0,0 km/h (0 Bft)
18.04.2010 00:04 17,2 C 7,6 C 0,0 UV-I 0,0 C 42 % 68 % 0 % 1017,4 hPa 0,0 l/m 0,0 km/h (0 Bft) 0 min 0,0 km/h (0 Bft)
18.04.2010 00:06 17,2 C 7,6 C 0,0 UV-I 0,0 C 42 % 68 % 0 % 1017,4 hPa 0,0 l/m 0,0 km/h (0 Bft) 0 min 0,0 km/h (0 Bft)
18.04.2010 00:08 17,2 C 7,5 C 0,0 UV-I 0,0 C 42 % 68 % 0 % 1017,4 hPa 0,0 l/m 0,0 km/h (0 Bft) 0 min 0,0 km/h (0 Bft)
18.04.2010 00:10 17,2 C 7,5 C 0,0 UV-I 0,0 C 42 % 68 % 0 % 1017,4 hPa 0,0 l/m 0,0 km/h (0 Bft) 0 min 0,0 km/h (0 Bft)
18.04.2010 00:12 17,3 C 7,5 C 0,0 UV-I 0,0 C 42 % 69 % 0 % 1017,6 hPa 0,0 l/m 0,0 km/h (0 Bft) 0 min 0,0 km/h (0 Bft)
18.04.2010 00:14 17,3 C 7,5 C 0,0 UV-I 0,0 C 42 % 69 % 0 % 1017,6 hPa 0,0 l/m 0,0 km/h (0 Bft) 0 min 0,0 km/h (0 Bft)
18.04.2010 00:16 17,2 C 7,3 C 0,0 UV-I 0,0 C 42 % 68 % 0 % 1017,6 hPa 0,0 l/m 0,0 km/h (0 Bft) 0 min 0,0 km/h (0 Bft)
18.04.2010 00:18 17,2 C 7,3 C 0,0 UV-I 0,0 C 42 % 69 % 0 % 1017,6 hPa 0,0 l/m 0,0 km/h (0 Bft) 0 min 0,0 km/h (0 Bft)
18.04.2010 00:22 17,2 C 7,3 C 0,0 UV-I 0,0 C 42 % 69 % 0 % 1017,6 hPa 0,0 l/m 0,0 km/h (0 Bft) 0 min 0,0 km/h (0 Bft)
18.04.2010 00:24 17,2 C 7,2 C 0,0 UV-I 0,0 C 42 % 69 % 0 % 1017,6 hPa 0,0 l/m 0,0 km/h (0 Bft) 0 min 0,0 km/h (0 Bft)
18.04.2010 00:26 17,2 C 7,2 C 0,0 UV-I 0,0 C 42 % 69 % 0 % 1017,6 hPa 0,0 l/m 0,0 km/h (0 Bft) 0 min 0,0 km/h (0 Bft)
18.04.2010 00:28 17,2 C 7,1 C 0,0 UV-I 0,0 C 42 % 70 % 0 % 1017,6 hPa 0,0 l/m 0,0 km/h (0 Bft) 0 min 0,0 km/h (0 Bft)
18.04.2010 00:30 17,2 C 7,0 C 0,0 UV-I 0,0 C 42 % 70 % 0 % 1017,6 hPa 0,0 l/m 0,0 km/h (0 Bft) 0 min 0,0 km/h (0 Bft)
18.04.2010 00:32 17,2 C 7,1 C 0,0 UV-I 0,0 C 42 % 70 % 0 % 1017,2 hPa 0,0 l/m 0,0 km/h (0 Bft) 0 min 0,0 km/h (0 Bft)
18.04.2010 00:34 17,2 C 6,9 C 0,0 UV-I 0,0 C 42 % 70 % 0 % 1017,2 hPa 0,0 l/m 0,0 km/h (0 Bft) 0 min 0,0 km/h (0 Bft)
18.04.2010 00:36 17,2 C 6,9 C 0,0 UV-I 0,0 C 42 % 70 % 0 % 1017,2 hPa 0,0 l/m 0,0 km/h (0 Bft) 0 min 0,0 km/h (0 Bft)
18.04.2010 00:42 17,1 C 6,8 C 0,0 UV-I 0,0 C 42 % 71 % 0 % 1017,2 hPa 0,0 l/m 0,0 km/h (0 Bft) 0 min 0,0 km/h (0 Bft)
18.04.2010 00:44 17,2 C 6,8 C 0,0 UV-I 0,0 C 42 % 71 % 0 % 1017,2 hPa 0,0 l/m 0,0 km/h (0 Bft) 0 min 0,0 km/h (0 Bft)
18.04.2010 00:46 17,1 C 6,7 C 0,0 UV-I 0,0 C 42 % 71 % 0 % 1017,2 hPa 0,0 l/m 0,0 km/h (0 Bft) 0 min 0,0 km/h (0 Bft)
18.04.2010 00:48 17,1 C 6,6 C 0,0 UV-I 0,0 C 42 % 71 % 0 % 1017,2 hPa 0,0 l/m 0,0 km/h (0 Bft) 0 min 0,0 km/h (0 Bft)
18.04.2010 00:50 17,1 C 6,6 C 0,0 UV-I 0,0 C 42 % 71 % 0 % 1017,2 hPa 0,0 l/m 0,0 km/h (0 Bft) 0 min 0,0 km/h (0 Bft)
18.04.2010 00:52 17,1 C 6,5 C 0,0 UV-I 0,0 C 42 % 72 % 0 % 1017,1 hPa 0,0 l/m 0,0 km/h (0 Bft) 0 min 0,0 km/h (0 Bft)
18.04.2010 00:54 17,1 C 6,5 C 0,0 UV-I 0,0 C 42 % 72 % 0 % 1017,1 hPa 0,0 l/m 0,0 km/h (0 Bft) 0 min 0,0 km/h (0 Bft)
18.04.2010 00:56 17,1 C 6,4 C 0,0 UV-I 0,0 C 42 % 72 % 0 % 1017,1 hPa 0,0 l/m 0,0 km/h (0 Bft) 0 min 0,0 km/h (0 Bft)
18.04.2010 00:58 17,1 C 6,4 C 0,0 UV-I 0,0 C 42 % 72 % 0 % 1017,1 hPa 0,0 l/m 0,0 km/h (0 Bft) 0 min 0,0 km/h (0 Bft)
18.04.2010 01:00 17,1 C 6,4 C 0,0 UV-I 0,0 C 42 % 72 % 0 % 1017,1 hPa 0,0 l/m 0,0 km/h (0 Bft) 0 min 0,0 km/h (0 Bft)
18.04.2010 01:02 17,0 C 6,4 C 0,0 UV-I 0,0 C 42 % 72 % 0 % 1017,1 hPa 0,0 l/m 0,0 km/h (0 Bft) 0 min 0,0 km/h (0 Bft)
18.04.2010 01:04 17,1 C 6,3 C 0,0 UV-I 0,0 C 42 % 72 % 0 % 1017,1 hPa 0,0 l/m 0,0 km/h (0 Bft) 0 min 0,0 km/h (0 Bft)
18.04.2010 01:06 17,0 C 6,3 C 0,0 UV-I 0,0 C 42 % 72 % 0 % 1017,1 hPa 0,0 l/m 0,0 km/h (0 Bft) 0 min 0,0 km/h (0 Bft)
18.04.2010 01:08 17,0 C 6,2 C 0,0 UV-I 0,0 C 42 % 73 % 0 % 1017,1 hPa 0,0 l/m 0,0 km/h (0 Bft) 0 min 0,0 km/h (0 Bft)
18.04.2010 01:12 17,0 C 6,2 C 0,0 UV-I 0,0 C 42 % 73 % 0 % 1017,2 hPa 0,0 l/m 0,0 km/h (0 Bft) 0 min 0,0 km/h (0 Bft)
18.04.2010 01:14 17,0 C 6,1 C 0,0 UV-I 0,0 C 42 % 73 % 0 % 1017,2 hPa 0,0 l/m 0,0 km/h (0 Bft) 0 min 0,0 km/h (0 Bft)
18.04.2010 01:16 17,0 C 6,0 C 0,0 UV-I 0,0 C 42 % 73 % 0 % 1017,2 hPa 0,0 l/m 0,0 km/h (0 Bft) 0 min 0,0 km/h (0 Bft)
18.04.2010 01:18 17,0 C 6,0 C 0,0 UV-I 0,0 C 43 % 73 % 0 % 1017,2 hPa 0,0 l/m 0,0 km/h (0 Bft) 0 min 0,0 km/h (0 Bft)
18.04.2010 01:20 17,0 C 6,0 C 0,0 UV-I 0,0 C 43 % 73 % 0 % 1017,2 hPa 0,0 l/m 0,0 km/h (0 Bft) 0 min 0,0 km/h (0 Bft)
18.04.2010 01:22 16,9 C 6,0 C 0,0 UV-I 0,0 C 43 % 73 % 0 % 1017,2 hPa 0,0 l/m 0,0 km/h (0 Bft) 0 min 0,0 km/h (0 Bft)
18.04.2010 01:26 16,9 C 5,9 C 0,0 UV-I 0,0 C 43 % 74 % 0 % 1017,2 hPa 0,0 l/m 0,0 km/h (0 Bft) 0 min 0,0 km/h (0 Bft)
18.04.2010 01:28 16,9 C 5,8 C 0,0 UV-I 0,0 C 43 % 74 % 0 % 1017,2 hPa 0,0 l/m 0,0 km/h (0 Bft) 0 min 0,0 km/h (0 Bft)
18.04.2010 01:30 16,9 C 5,8 C 0,0 UV-I 0,0 C 43 % 74 % 0 % 1017,2 hPa 0,0 l/m 0,0 km/h (0 Bft) 0 min 0,0 km/h (0 Bft)
18.04.2010 01:32 16,9 C 5,9 C 0,0 UV-I 0,0 C 43 % 74 % 0 % 1017,1 hPa 0,0 l/m 0,0 km/h (0 Bft) 0 min 0,0 km/h (0 Bft)
18.04.2010 01:34 16,9 C 5,7 C 0,0 UV-I 0,0 C 43 % 74 % 0 % 1017,1 hPa 0,0 l/m 0,0 km/h (0 Bft) 0 min 0,0 km/h (0 Bft)
18.04.2010 01:36 16,9 C 5,7 C 0,0 UV-I 0,0 C 43 % 74 % 0 % 1017,1 hPa 0,0 l/m 0,0 km/h (0 Bft) 0 min 0,0 km/h (0 Bft)
18.04.2010 01:38 16,8 C 5,6 C 0,0 UV-I 0,0 C 43 % 74 % 0 % 1017,1 hPa 0,0 l/m 0,0 km/h (0 Bft) 0 min 0,0 km/h (0 Bft)
18.04.2010 01:40 16,8 C 5,6 C 0,0 UV-I 0,0 C 43 % 74 % 0 % 1017,1 hPa 0,0 l/m 0,0 km/h (0 Bft) 0 min 0,0 km/h (0 Bft)
18.04.2010 01:42 16,8 C 5,6 C 0,0 UV-I 0,0 C 43 % 74 % 0 % 1017,1 hPa 0,0 l/m 0,0 km/h (0 Bft) 0 min 0,0 km/h (0 Bft)
18.04.2010 01:44 16,8 C 5,6 C 0,0 UV-I 0,0 C 43 % 74 % 0 % 1017,1 hPa 0,0 l/m 0,0 km/h (0 Bft) 0 min 0,0 km/h (0 Bft)
18.04.2010 01:48 16,8 C 5,5 C 0,0 UV-I 0,0 C 43 % 74 % 0 % 1017,1 hPa 0,0 l/m 0,0 km/h (0 Bft) 0 min 0,0 km/h (0 Bft)
18.04.2010 01:50 16,8 C 5,5 C 0,0 UV-I 0,0 C 43 % 74 % 0 % 1017,1 hPa 0,0 l/m 0,0 km/h (0 Bft) 0 min 0,0 km/h (0 Bft)
18.04.2010 01:52 16,8 C 5,5 C 0,0 UV-I 0,0 C 43 % 75 % 0 % 1017,0 hPa 0,0 l/m 0,0 km/h (0 Bft) 0 min 0,0 km/h (0 Bft)
18.04.2010 01:54 16,8 C 5,5 C 0,0 UV-I 0,0 C 43 % 75 % 0 % 1017,0 hPa 0,0 l/m 0,0 km/h (0 Bft) 0 min 0,0 km/h (0 Bft)
18.04.2010 01:56 16,8 C 5,3 C 0,0 UV-I 0,0 C 43 % 75 % 0 % 1017,0 hPa 0,0 l/m 0,0 km/h (0 Bft) 0 min 0,0 km/h (0 Bft)
18.04.2010 01:58 16,8 C 5,3 C 0,0 UV-I 0,0 C 43 % 75 % 0 % 1017,0 hPa 0,0 l/m 0,0 km/h (0 Bft) 0 min 0,0 km/h (0 Bft)
18.04.2010 02:00 16,8 C 5,3 C 0,0 UV-I 0,0 C 43 % 75 % 0 % 1017,0 hPa 0,0 l/m 0,0 km/h (0 Bft) 0 min 0,0 km/h (0 Bft)
18.04.2010 02:02 16,8 C 5,2 C 0,0 UV-I 0,0 C 43 % 75 % 0 % 1017,0 hPa 0,0 l/m 0,0 km/h (0 Bft) 0 min 0,0 km/h (0 Bft)
18.04.2010 02:04 16,8 C 5,3 C 0,0 UV-I 0,0 C 43 % 75 % 0 % 1017,0 hPa 0,0 l/m 0,0 km/h (0 Bft) 0 min 0,0 km/h (0 Bft)
18.04.2010 02:06 16,8 C 5,2 C 0,0 UV-I 0,0 C 43 % 75 % 0 % 1017,0 hPa 0,0 l/m 0,0 km/h (0 Bft) 0 min 0,0 km/h (0 Bft)
18.04.2010 02:08 16,8 C 5,2 C 0,0 UV-I 0,0 C 43 % 75 % 0 % 1017,0 hPa 0,0 l/m 0,0 km/h (0 Bft) 0 min 0,0 km/h (0 Bft)
18.04.2010 02:10 16,8 C 5,1 C 0,0 UV-I 0,0 C 43 % 75 % 0 % 1017,0 hPa 0,0 l/m 0,0 km/h (0 Bft) 0 min 0,0 km/h (0 Bft)
18.04.2010 02:12 16,8 C 5,1 C 0,0 UV-I 0,0 C 43 % 76 % 0 % 1016,7 hPa 0,0 l/m 0,0 km/h (0 Bft) 0 min 0,0 km/h (0 Bft)
18.04.2010 02:14 16,8 C 5,1 C 0,0 UV-I 0,0 C 43 % 76 % 0 % 1016,7 hPa 0,0 l/m 0,0 km/h (0 Bft) 0 min 0,0 km/h (0 Bft)
18.04.2010 02:16 16,7 C 5,1 C 0,0 UV-I 0,0 C 43 % 76 % 0 % 1016,7 hPa 0,0 l/m 0,0 km/h (0 Bft) 0 min 0,0 km/h (0 Bft)
18.04.2010 02:18 16,7 C 5,1 C 0,0 UV-I 0,0 C 43 % 76 % 0 % 1016,7 hPa 0,0 l/m 0,0 km/h (0 Bft) 0 min 0,0 km/h (0 Bft)
18.04.2010 02:20 16,7 C 5,1 C 0,0 UV-I 0,0 C 43 % 76 % 0 % 1016,7 hPa 0,0 l/m 0,0 km/h (0 Bft) 0 min 0,0 km/h (0 Bft)
18.04.2010 02:22 16,7 C 4,9 C 0,0 UV-I 0,0 C 43 % 76 % 0 % 1016,7 hPa 0,0 l/m 0,0 km/h (0 Bft) 0 min 0,0 km/h (0 Bft)
18.04.2010 02:24 16,7 C 4,9 C 0,0 UV-I 0,0 C 43 % 76 % 0 % 1016,7 hPa 0,0 l/m 0,0 km/h (0 Bft) 0 min 0,0 km/h (0 Bft)
18.04.2010 02:26 16,7 C 4,8 C 0,0 UV-I 0,0 C 43 % 77 % 0 % 1016,7 hPa 0,0 l/m 0,0 km/h (0 Bft) 0 min 0,0 km/h (0 Bft)
18.04.2010 02:30 16,7 C 4,9 C 0,0 UV-I 0,0 C 43 % 77 % 0 % 1016,7 hPa 0,0 l/m 0,0 km/h (0 Bft) 0 min 0,0 km/h (0 Bft)
18.04.2010 02:32 16,7 C 4,8 C 0,0 UV-I 0,0 C 43 % 77 % 0 % 1016,4 hPa 0,0 l/m 0,0 km/h (0 Bft) 0 min 0,0 km/h (0 Bft)
18.04.2010 02:34 16,7 C 4,7 C 0,0 UV-I 0,0 C 43 % 77 % 0 % 1016,4 hPa 0,0 l/m 0,0 km/h (0 Bft) 0 min 0,0 km/h (0 Bft)
18.04.2010 02:36 16,7 C 4,8 C 0,0 UV-I 0,0 C 43 % 77 % 0 % 1016,4 hPa 0,0 l/m 0,0 km/h (0 Bft) 0 min 0,0 km/h (0 Bft)
18.04.2010 02:38 16,7 C 4,7 C 0,0 UV-I 0,0 C 43 % 77 % 0 % 1016,4 hPa 0,0 l/m 0,0 km/h (0 Bft) 0 min 0,0 km/h (0 Bft)
18.04.2010 02:40 16,7 C 4,7 C 0,0 UV-I 0,0 C 43 % 77 % 0 % 1016,4 hPa 0,0 l/m 0,0 km/h (0 Bft) 0 min 0,0 km/h (0 Bft)
18.04.2010 02:42 16,7 C 4,6 C 0,0 UV-I 0,0 C 43 % 77 % 0 % 1016,4 hPa 0,0 l/m 0,0 km/h (0 Bft) 0 min 0,0 km/h (0 Bft)
18.04.2010 02:44 16,6 C 4,7 C 0,0 UV-I 0,0 C 43 % 77 % 0 % 1016,4 hPa 0,0 l/m 0,0 km/h (0 Bft) 0 min 0,0 km/h (0 Bft)
18.04.2010 02:46 16,6 C 4,7 C 0,0 UV-I 0,0 C 43 % 78 % 0 % 1016,4 hPa 0,0 l/m 0,0 km/h (0 Bft) 0 min 0,0 km/h (0 Bft)
18.04.2010 02:48 16,7 C 4,5 C 0,0 UV-I 0,0 C 43 % 78 % 0 % 1016,4 hPa 0,0 l/m 0,0 km/h (0 Bft) 0 min 0,0 km/h (0 Bft)
18.04.2010 02:50 16,7 C 4,5 C 0,0 UV-I 0,0 C 43 % 78 % 0 % 1016,4 hPa 0,0 l/m 0,0 km/h (0 Bft) 0 min 0,0 km/h (0 Bft)
18.04.2010 02:52 16,6 C 4,5 C 0,0 UV-I 0,0 C 43 % 78 % 0 % 1016,4 hPa 0,0 l/m 0,0 km/h (0 Bft) 0 min 0,0 km/h (0 Bft)
18.04.2010 02:54 16,6 C 4,4 C 0,0 UV-I 0,0 C 43 % 78 % 0 % 1016,4 hPa 0,0 l/m 0,0 km/h (0 Bft) 0 min 0,0 km/h (0 Bft)
18.04.2010 02:56 16,6 C 4,4 C 0,0 UV-I 0,0 C 43 % 78 % 0 % 1016,4 hPa 0,0 l/m 0,0 km/h (0 Bft) 0 min 0,0 km/h (0 Bft)
18.04.2010 02:58 16,6 C 4,4 C 0,0 UV-I 0,0 C 43 % 78 % 0 % 1016,4 hPa 0,0 l/m 0,0 km/h (0 Bft) 0 min 0,0 km/h (0 Bft)
18.04.2010 03:00 16,6 C 4,4 C 0,0 UV-I 0,0 C 43 % 78 % 0 % 1016,4 hPa 0,0 l/m 0,0 km/h (0 Bft) 0 min 0,0 km/h (0 Bft)
18.04.2010 03:02 16,6 C 4,4 C 0,0 UV-I 0,0 C 43 % 78 % 0 % 1016,4 hPa 0,0 l/m 0,0 km/h (0 Bft) 0 min 0,0 km/h (0 Bft)
18.04.2010 03:04 16,6 C 4,4 C 0,0 UV-I 0,0 C 43 % 78 % 0 % 1016,4 hPa 0,0 l/m 0,0 km/h (0 Bft) 0 min 0,0 km/h (0 Bft)
18.04.2010 03:06 16,6 C 4,3 C 0,0 UV-I 0,0 C 43 % 79 % 0 % 1016,4 hPa 0,0 l/m 0,0 km/h (0 Bft) 0 min 0,0 km/h (0 Bft)
18.04.2010 03:08 16,6 C 4,3 C 0,0 UV-I 0,0 C 43 % 79 % 0 % 1016,4 hPa 0,0 l/m 0,0 km/h (0 Bft) 0 min 0,0 km/h (0 Bft)
18.04.2010 03:10 16,6 C 4,3 C 0,0 UV-I 0,0 C 43 % 79 % 0 % 1016,4 hPa 0,0 l/m 0,0 km/h (0 Bft) 0 min 0,0 km/h (0 Bft)
18.04.2010 03:14 16,6 C 4,3 C 0,0 UV-I 0,0 C 43 % 80 % 0 % 1016,1 hPa 0,0 l/m 0,0 km/h (0 Bft) 0 min 0,0 km/h (0 Bft)
18.04.2010 03:16 16,6 C 4,3 C 0,0 UV-I 0,0 C 43 % 80 % 0 % 1016,1 hPa 0,0 l/m 0,0 km/h (0 Bft) 0 min 0,0 km/h (0 Bft)
18.04.2010 03:20 16,6 C 4,1 C 0,0 UV-I 0,0 C 43 % 80 % 0 % 1016,1 hPa 0,0 l/m 0,0 km/h (0 Bft) 0 min 0,0 km/h (0 Bft)
18.04.2010 03:22 16,6 C 4,1 C 0,0 UV-I 0,0 C 43 % 80 % 0 % 1016,1 hPa 0,0 l/m 0,0 km/h (0 Bft) 0 min 0,0 km/h (0 Bft)
18.04.2010 03:24 16,6 C 4,1 C 0,0 UV-I 0,0 C 43 % 80 % 0 % 1016,1 hPa 0,0 l/m 0,0 km/h (0 Bft) 0 min 0,0 km/h (0 Bft)
18.04.2010 03:30 16,6 C 4,0 C 0,0 UV-I 0,0 C 43 % 81 % 0 % 1016,1 hPa 0,0 l/m 0,0 km/h (0 Bft) 0 min 0,0 km/h (0 Bft)
18.04.2010 03:34 16,6 C 4,0 C 0,0 UV-I 0,0 C 43 % 81 % 0 % 1015,9 hPa 0,0 l/m 0,0 km/h (0 Bft) 0 min 0,0 km/h (0 Bft)
18.04.2010 03:36 16,6 C 4,0 C 0,0 UV-I 0,0 C 43 % 81 % 0 % 1015,9 hPa 0,0 l/m 0,0 km/h (0 Bft) 0 min 0,0 km/h (0 Bft)
18.04.2010 03:38 16,6 C 3,9 C 0,0 UV-I 0,0 C 43 % 81 % 0 % 1015,9 hPa 0,0 l/m 0,0 km/h (0 Bft) 0 min 0,0 km/h (0 Bft)
18.04.2010 03:40 16,6 C 3,9 C 0,0 UV-I 0,0 C 43 % 81 % 0 % 1015,9 hPa 0,0 l/m 0,0 km/h (0 Bft) 0 min 0,0 km/h (0 Bft)
18.04.2010 03:42 16,6 C 3,9 C 0,0 UV-I 0,0 C 43 % 81 % 0 % 1015,9 hPa 0,0 l/m 0,0 km/h (0 Bft) 0 min 0,0 km/h (0 Bft)
18.04.2010 03:44 16,6 C 3,8 C 0,0 UV-I 0,0 C 43 % 81 % 0 % 1015,9 hPa 0,0 l/m 0,0 km/h (0 Bft) 0 min 0,0 km/h (0 Bft)
18.04.2010 03:48 16,6 C 3,9 C 0,0 UV-I 0,0 C 43 % 81 % 0 % 1015,9 hPa 0,0 l/m 0,0 km/h (0 Bft) 0 min 0,0 km/h (0 Bft)
18.04.2010 03:50 16,5 C 3,9 C 0,0 UV-I 0,0 C 43 % 81 % 0 % 1015,9 hPa 0,0 l/m 0,0 km/h (0 Bft) 0 min 0,0 km/h (0 Bft)
18.04.2010 03:52 16,5 C 3,7 C 0,0 UV-I 0,0 C 43 % 81 % 0 % 1015,9 hPa 0,0 l/m 0,0 km/h (0 Bft) 0 min 0,0 km/h (0 Bft)
18.04.2010 03:54 16,5 C 3,7 C 0,0 UV-I 0,0 C 43 % 81 % 0 % 1015,9 hPa 0,0 l/m 0,0 km/h (0 Bft) 0 min 0,0 km/h (0 Bft)
18.04.2010 03:56 16,5 C 3,7 C 0,0 UV-I 0,0 C 43 % 81 % 0 % 1015,9 hPa 0,0 l/m 0,0 km/h (0 Bft) 0 min 0,0 km/h (0 Bft)
18.04.2010 03:58 16,5 C 3,7 C 0,0 UV-I 0,0 C 43 % 81 % 0 % 1015,9 hPa 0,0 l/m 0,0 km/h (0 Bft) 0 min 0,0 km/h (0 Bft)
18.04.2010 04:00 16,5 C 3,6 C 0,0 UV-I 0,0 C 43 % 82 % 0 % 1015,9 hPa 0,0 l/m 0,0 km/h (0 Bft) 0 min 0,0 km/h (0 Bft)
18.04.2010 04:02 16,5 C 3,6 C 0,0 UV-I 0,0 C 44 % 82 % 0 % 1015,9 hPa 0,0 l/m 0,0 km/h (0 Bft) 0 min 0,0 km/h (0 Bft)
18.04.2010 04:04 16,5 C 3,6 C 0,0 UV-I 0,0 C 43 % 82 % 0 % 1015,9 hPa 0,0 l/m 0,0 km/h (0 Bft) 0 min 0,0 km/h (0 Bft)
18.04.2010 04:06 16,5 C 3,6 C 0,0 UV-I 0,0 C 43 % 82 % 0 % 1015,9 hPa 0,0 l/m 0,0 km/h (0 Bft) 0 min 0,0 km/h (0 Bft)
18.04.2010 04:08 16,5 C 3,7 C 0,0 UV-I 0,0 C 43 % 82 % 0 % 1015,9 hPa 0,0 l/m 0,0 km/h (0 Bft) 0 min 0,0 km/h (0 Bft)
18.04.2010 04:10 16,5 C 3,6 C 0,0 UV-I 0,0 C 44 % 82 % 0 % 1015,9 hPa 0,0 l/m 0,0 km/h (0 Bft) 0 min 0,0 km/h (0 Bft)
18.04.2010 04:14 16,5 C 3,6 C 0,0 UV-I 0,0 C 44 % 82 % 0 % 1015,7 hPa 0,0 l/m 0,0 km/h (0 Bft) 0 min 0,0 km/h (0 Bft)
18.04.2010 04:19 16,4 C 3,5 C 0,0 UV-I 0,0 C 44 % 82 % 0 % 1015,7 hPa 0,0 l/m 0,0 km/h (0 Bft) 0 min 0,0 km/h (0 Bft)
18.04.2010 04:20 16,4 C 3,5 C 0,0 UV-I 0,0 C 44 % 82 % 0 % 1015,7 hPa 0,0 l/m 0,0 km/h (0 Bft) 0 min 0,0 km/h (0 Bft)
18.04.2010 04:22 16,4 C 3,5 C 0,0 UV-I 0,0 C 44 % 82 % 0 % 1015,7 hPa 0,0 l/m 0,0 km/h (0 Bft) 0 min 0,0 km/h (0 Bft)
18.04.2010 04:24 16,4 C 3,4 C 0,0 UV-I 0,0 C 44 % 82 % 0 % 1015,7 hPa 0,0 l/m 0,0 km/h (0 Bft) 0 min 0,0 km/h (0 Bft)
18.04.2010 04:26 16,4 C 3,5 C 0,0 UV-I 0,0 C 43 % 82 % 0 % 1015,7 hPa 0,0 l/m 0,0 km/h (0 Bft) 0 min 0,0 km/h (0 Bft)
18.04.2010 04:28 16,4 C 3,5 C 0,0 UV-I 0,0 C 43 % 82 % 0 % 1015,7 hPa 0,0 l/m 0,0 km/h (0 Bft) 0 min 0,0 km/h (0 Bft)
18.04.2010 04:30 16,4 C 3,5 C 0,0 UV-I 0,0 C 44 % 82 % 0 % 1015,7 hPa 0,0 l/m 0,0 km/h (0 Bft) 0 min 0,0 km/h (0 Bft)
18.04.2010 04:32 16,4 C 3,5 C 0,0 UV-I 0,0 C 44 % 82 % 0 % 1015,6 hPa 0,0 l/m 0,4 km/h (0 Bft) 0 min 4,0 km/h (1 Bft)
18.04.2010 04:34 16,4 C 3,4 C 0,0 UV-I 0,0 C 44 % 82 % 0 % 1015,6 hPa 0,0 l/m 0,4 km/h (0 Bft) 0 min 0,0 km/h (0 Bft)
18.04.2010 04:36 16,4 C 3,5 C 0,0 UV-I 0,0 C 44 % 83 % 0 % 1015,6 hPa 0,0 l/m 0,8 km/h (0 Bft) 0 min 0,0 km/h (0 Bft)
18.04.2010 04:38 16,4 C 3,5 C 0,0 UV-I 0,0 C 44 % 83 % 0 % 1015,6 hPa 0,0 l/m 0,8 km/h (0 Bft) 0 min 0,0 km/h (0 Bft)
18.04.2010 04:40 16,4 C 3,5 C 0,0 UV-I 0,0 C 44 % 82 % 0 % 1015,6 hPa 0,0 l/m 0,8 km/h (0 Bft) 0 min 5,6 km/h (1 Bft)
18.04.2010 04:42 16,4 C 3,5 C 0,0 UV-I 0,0 C 44 % 82 % 0 % 1015,6 hPa 0,0 l/m 0,4 km/h (0 Bft) 0 min 0,0 km/h (0 Bft)
18.04.2010 04:44 16,4 C 3,5 C 0,0 UV-I 0,0 C 44 % 82 % 0 % 1015,6 hPa 0,0 l/m 0,4 km/h (0 Bft) 0 min 0,0 km/h (0 Bft)
18.04.2010 04:46 16,4 C 3,5 C 0,0 UV-I 0,0 C 44 % 82 % 0 % 1015,6 hPa 0,0 l/m 0,4 km/h (0 Bft) 0 min 0,0 km/h (0 Bft)
18.04.2010 04:48 16,4 C 3,4 C 0,0 UV-I 0,0 C 44 % 82 % 0 % 1015,6 hPa 0,0 l/m 0,0 km/h (0 Bft) 0 min 0,0 km/h (0 Bft)
18.04.2010 04:50 16,4 C 3,4 C 0,0 UV-I 0,0 C 44 % 82 % 0 % 1015,6 hPa 0,0 l/m 0,0 km/h (0 Bft) 0 min 0,0 km/h (0 Bft)
18.04.2010 04:52 16,4 C 3,4 C 0,0 UV-I 0,0 C 44 % 82 % 0 % 1015,2 hPa 0,0 l/m 0,0 km/h (0 Bft) 0 min 0,0 km/h (0 Bft)
18.04.2010 04:54 16,4 C 3,5 C 0,0 UV-I 0,0 C 44 % 82 % 0 % 1015,2 hPa 0,0 l/m 0,0 km/h (0 Bft) 0 min 0,0 km/h (0 Bft)
18.04.2010 04:56 16,4 C 3,5 C 0,0 UV-I 0,0 C 44 % 82 % 0 % 1015,2 hPa 0,0 l/m 0,0 km/h (0 Bft) 0 min 0,0 km/h (0 Bft)
18.04.2010 04:58 16,4 C 3,3 C 0,0 UV-I 0,0 C 44 % 82 % 0 % 1015,2 hPa 0,0 l/m 0,0 km/h (0 Bft) 0 min 0,0 km/h (0 Bft)
18.04.2010 05:00 16,4 C 3,3 C 0,0 UV-I 0,0 C 44 % 82 % 0 % 1015,2 hPa 0,0 l/m 0,0 km/h (0 Bft) 0 min 0,0 km/h (0 Bft)
18.04.2010 05:02 16,4 C 3,3 C 0,0 UV-I 0,0 C 44 % 82 % 0 % 1015,2 hPa 0,0 l/m 0,0 km/h (0 Bft) 0 min 0,0 km/h (0 Bft)
18.04.2010 05:04 16,4 C 3,3 C 0,0 UV-I 0,0 C 44 % 82 % 0 % 1015,2 hPa 0,0 l/m 0,0 km/h (0 Bft) 0 min 0,0 km/h (0 Bft)
18.04.2010 05:06 16,4 C 3,2 C 0,0 UV-I 0,0 C 44 % 83 % 0 % 1015,2 hPa 0,0 l/m 0,0 km/h (0 Bft) 0 min 0,0 km/h (0 Bft)
18.04.2010 05:08 16,2 C 3,3 C 0,0 UV-I 0,0 C 44 % 83 % 0 % 1015,2 hPa 0,0 l/m 0,0 km/h (0 Bft) 0 min 0,0 km/h (0 Bft)
18.04.2010 05:10 16,2 C 3,2 C 0,0 UV-I 0,0 C 44 % 83 % 0 % 1015,2 hPa 0,0 l/m 0,0 km/h (0 Bft) 0 min 0,0 km/h (0 Bft)
18.04.2010 05:12 16,4 C 3,2 C 0,0 UV-I 0,0 C 44 % 83 % 0 % 1015,2 hPa 0,0 l/m 0,0 km/h (0 Bft) 0 min 0,0 km/h (0 Bft)
18.04.2010 05:14 16,2 C 3,3 C 0,0 UV-I 0,0 C 44 % 83 % 0 % 1015,2 hPa 0,0 l/m 0,0 km/h (0 Bft) 0 min 0,0 km/h (0 Bft)
18.04.2010 05:16 16,2 C 3,2 C 0,0 UV-I 0,0 C 44 % 83 % 0 % 1015,2 hPa 0,0 l/m 0,0 km/h (0 Bft) 0 min 0,0 km/h (0 Bft)
18.04.2010 05:18 16,2 C 3,2 C 0,0 UV-I 0,0 C 44 % 83 % 0 % 1015,2 hPa 0,0 l/m 0,0 km/h (0 Bft) 0 min 0,0 km/h (0 Bft)
18.04.2010 05:20 16,2 C 3,2 C 0,0 UV-I 0,0 C 44 % 83 % 0 % 1015,2 hPa 0,0 l/m 0,0 km/h (0 Bft) 0 min 0,0 km/h (0 Bft)
18.04.2010 05:22 16,2 C 3,2 C 0,0 UV-I 0,0 C 44 % 83 % 0 % 1015,2 hPa 0,0 l/m 0,0 km/h (0 Bft) 0 min 0,0 km/h (0 Bft)
18.04.2010 05:24 16,3 C 3,2 C 0,0 UV-I 0,0 C 44 % 83 % 0 % 1015,2 hPa 0,0 l/m 0,0 km/h (0 Bft) 0 min 0,0 km/h (0 Bft)
18.04.2010 05:26 16,3 C 3,2 C 0,0 UV-I 0,0 C 44 % 83 % 0 % 1015,2 hPa 0,0 l/m 0,0 km/h (0 Bft) 0 min 0,0 km/h (0 Bft)
18.04.2010 05:28 16,3 C 3,1 C 0,0 UV-I 0,0 C 44 % 83 % 0 % 1015,2 hPa 0,0 l/m 0,0 km/h (0 Bft) 0 min 0,0 km/h (0 Bft)
18.04.2010 05:30 16,3 C 3,2 C 0,0 UV-I 0,0 C 44 % 83 % 0 % 1015,2 hPa 0,0 l/m 0,0 km/h (0 Bft) 0 min 0,0 km/h (0 Bft)
18.04.2010 05:32 16,3 C 3,2 C 0,0 UV-I 0,0 C 44 % 83 % 0 % 1015,0 hPa 0,0 l/m 0,0 km/h (0 Bft) 0 min 0,0 km/h (0 Bft)
18.04.2010 05:34 16,2 C 3,1 C 0,0 UV-I 0,0 C 44 % 83 % 0 % 1015,0 hPa 0,0 l/m 0,0 km/h (0 Bft) 0 min 0,0 km/h (0 Bft)
18.04.2010 05:36 16,2 C 3,1 C 0,0 UV-I 0,0 C 44 % 83 % 0 % 1015,0 hPa 0,0 l/m 0,0 km/h (0 Bft) 0 min 0,0 km/h (0 Bft)
18.04.2010 05:38 16,2 C 3,1 C 0,0 UV-I 0,0 C 44 % 83 % 0 % 1015,0 hPa 0,0 l/m 0,0 km/h (0 Bft) 0 min 0,0 km/h (0 Bft)
18.04.2010 05:40 16,2 C 3,1 C 0,0 UV-I 0,0 C 44 % 83 % 0 % 1015,0 hPa 0,0 l/m 0,0 km/h (0 Bft) 0 min 0,0 km/h (0 Bft)
18.04.2010 05:42 16,2 C 3,1 C 0,0 UV-I 0,0 C 44 % 83 % 0 % 1015,0 hPa 0,0 l/m 0,0 km/h (0 Bft) 0 min 0,0 km/h (0 Bft)
18.04.2010 05:44 16,2 C 3,1 C 0,0 UV-I 0,0 C 44 % 83 % 0 % 1015,0 hPa 0,0 l/m 0,0 km/h (0 Bft) 0 min 0,0 km/h (0 Bft)
18.04.2010 05:46 16,2 C 3,1 C 0,0 UV-I 0,0 C 44 % 83 % 0 % 1015,0 hPa 0,0 l/m 0,0 km/h (0 Bft) 0 min 0,0 km/h (0 Bft)
18.04.2010 05:48 16,2 C 3,1 C 0,0 UV-I 0,0 C 44 % 83 % 0 % 1015,0 hPa 0,0 l/m 0,0 km/h (0 Bft) 0 min 0,0 km/h (0 Bft)
18.04.2010 05:50 16,2 C 3,0 C 0,0 UV-I 0,0 C 44 % 83 % 0 % 1015,0 hPa 0,0 l/m 0,0 km/h (0 Bft) 0 min 0,0 km/h (0 Bft)
18.04.2010 05:52 16,2 C 3,0 C 0,0 UV-I 0,0 C 44 % 83 % 0 % 1015,2 hPa 0,0 l/m 0,0 km/h (0 Bft) 0 min 0,0 km/h (0 Bft)
18.04.2010 05:54 16,2 C 2,9 C 0,0 UV-I 0,0 C 44 % 83 % 0 % 1015,2 hPa 0,0 l/m 0,0 km/h (0 Bft) 0 min 0,0 km/h (0 Bft)
18.04.2010 05:56 16,1 C 2,8 C 0,0 UV-I 0,0 C 44 % 83 % 0 % 1015,2 hPa 0,0 l/m 0,0 km/h (0 Bft) 0 min 0,0 km/h (0 Bft)
18.04.2010 06:00 16,1 C 2,8 C 0,0 UV-I 0,0 C 44 % 83 % 0 % 1015,2 hPa 0,0 l/m 0,0 km/h (0 Bft) 0 min 0,0 km/h (0 Bft)
18.04.2010 06:02 16,1 C 2,9 C 0,0 UV-I 0,0 C 44 % 83 % 0 % 1015,2 hPa 0,0 l/m 0,0 km/h (0 Bft) 0 min 0,0 km/h (0 Bft)
18.04.2010 06:04 16,1 C 2,9 C 0,0 UV-I 0,0 C 44 % 83 % 0 % 1015,2 hPa 0,0 l/m 0,0 km/h (0 Bft) 0 min 0,0 km/h (0 Bft)
18.04.2010 06:06 16,1 C 2,9 C 0,0 UV-I 0,0 C 44 % 83 % 0 % 1015,2 hPa 0,0 l/m 0,0 km/h (0 Bft) 0 min 0,0 km/h (0 Bft)
18.04.2010 06:08 16,1 C 2,8 C 0,0 UV-I 0,0 C 44 % 83 % 0 % 1015,2 hPa 0,0 l/m 0,0 km/h (0 Bft) 0 min 0,0 km/h (0 Bft)
18.04.2010 06:10 16,1 C 2,8 C 0,0 UV-I 0,0 C 44 % 83 % 0 % 1015,2 hPa 0,0 l/m 0,0 km/h (0 Bft) 0 min 0,0 km/h (0 Bft)
18.04.2010 06:12 16,1 C 2,7 C 0,0 UV-I 0,0 C 44 % 83 % 0 % 1014,8 hPa 0,0 l/m 0,0 km/h (0 Bft) 0 min 0,0 km/h (0 Bft)
18.04.2010 06:14 15,9 C 2,7 C 0,0 UV-I 0,0 C 44 % 83 % 0 % 1014,8 hPa 0,0 l/m 0,0 km/h (0 Bft) 0 min 0,0 km/h (0 Bft)
18.04.2010 06:16 15,9 C 2,7 C 0,0 UV-I 0,0 C 44 % 83 % 0 % 1014,8 hPa 0,0 l/m 0,0 km/h (0 Bft) 0 min 0,0 km/h (0 Bft)
18.04.2010 06:18 15,9 C 2,6 C 0,0 UV-I 0,0 C 44 % 83 % 0 % 1014,8 hPa 0,0 l/m 0,0 km/h (0 Bft) 0 min 0,0 km/h (0 Bft)
18.04.2010 06:20 15,9 C 2,7 C 0,0 UV-I 0,0 C 44 % 83 % 0 % 1014,8 hPa 0,0 l/m 0,0 km/h (0 Bft) 0 min 0,0 km/h (0 Bft)
18.04.2010 06:24 16,0 C 2,7 C 0,0 UV-I 0,0 C 44 % 84 % 0 % 1014,8 hPa 0,0 l/m 0,0 km/h (0 Bft) 0 min 0,0 km/h (0 Bft)
18.04.2010 06:26 16,0 C 2,5 C 0,0 UV-I 0,0 C 44 % 84 % 0 % 1014,8 hPa 0,0 l/m 0,0 km/h (0 Bft) 0 min 0,0 km/h (0 Bft)
18.04.2010 06:28 16,0 C 2,5 C 0,0 UV-I 0,0 C 44 % 84 % 0 % 1014,8 hPa 0,0 l/m 0,0 km/h (0 Bft) 0 min 0,0 km/h (0 Bft)
18.04.2010 06:30 16,0 C 2,5 C 0,0 UV-I 0,0 C 44 % 84 % 0 % 1014,8 hPa 0,0 l/m 0,0 km/h (0 Bft) 0 min 0,0 km/h (0 Bft)
18.04.2010 06:32 16,0 C 2,4 C 0,0 UV-I 0,0 C 44 % 84 % 0 % 1014,7 hPa 0,0 l/m 0,0 km/h (0 Bft) 0 min 0,0 km/h (0 Bft)
18.04.2010 06:34 15,8 C 2,4 C 0,0 UV-I 0,0 C 44 % 84 % 0 % 1014,7 hPa 0,0 l/m 0,0 km/h (0 Bft) 0 min 0,0 km/h (0 Bft)
18.04.2010 06:36 16,0 C 2,4 C 0,0 UV-I 0,0 C 44 % 84 % 0 % 1014,7 hPa 0,0 l/m 0,0 km/h (0 Bft) 0 min 0,0 km/h (0 Bft)
18.04.2010 06:38 15,8 C 2,4 C 0,0 UV-I 0,0 C 44 % 84 % 0 % 1014,7 hPa 0,0 l/m 0,0 km/h (0 Bft) 0 min 0,0 km/h (0 Bft)
18.04.2010 06:40 15,8 C 2,4 C 0,0 UV-I 0,0 C 44 % 84 % 0 % 1014,7 hPa 0,0 l/m 0,0 km/h (0 Bft) 0 min 0,0 km/h (0 Bft)
18.04.2010 06:42 15,9 C 2,4 C 0,0 UV-I 0,0 C 44 % 84 % 0 % 1014,7 hPa 0,0 l/m 0,0 km/h (0 Bft) 0 min 0,0 km/h (0 Bft)
18.04.2010 06:44 15,9 C 2,4 C 0,0 UV-I 0,0 C 44 % 84 % 0 % 1014,7 hPa 0,0 l/m 0,0 km/h (0 Bft) 0 min 0,0 km/h (0 Bft)
18.04.2010 06:46 15,9 C 2,3 C 0,0 UV-I 0,0 C 44 % 84 % 0 % 1014,7 hPa 0,0 l/m 0,0 km/h (0 Bft) 0 min 0,0 km/h (0 Bft)
18.04.2010 06:48 15,9 C 2,3 C 0,0 UV-I 0,0 C 44 % 84 % 0 % 1014,7 hPa 0,0 l/m 0,0 km/h (0 Bft) 0 min 0,0 km/h (0 Bft)
18.04.2010 06:50 15,9 C 2,3 C 0,0 UV-I 0,0 C 44 % 84 % 0 % 1014,7 hPa 0,0 l/m 0,0 km/h (0 Bft) 0 min 0,0 km/h (0 Bft)
18.04.2010 06:52 15,9 C 2,3 C 0,0 UV-I 0,0 C 44 % 84 % 0 % 1014,8 hPa 0,0 l/m 0,0 km/h (0 Bft) 0 min 0,0 km/h (0 Bft)
18.04.2010 06:54 15,9 C 2,3 C 0,0 UV-I 0,0 C 44 % 84 % 0 % 1014,8 hPa 0,0 l/m 0,0 km/h (0 Bft) 0 min 0,0 km/h (0 Bft)
18.04.2010 06:56 15,8 C 2,2 C 0,0 UV-I 0,0 C 44 % 84 % 0 % 1014,8 hPa 0,0 l/m 0,0 km/h (0 Bft) 0 min 0,0 km/h (0 Bft)
18.04.2010 06:58 15,8 C 2,3 C 0,0 UV-I 0,0 C 44 % 84 % 0 % 1014,8 hPa 0,0 l/m 0,0 km/h (0 Bft) 0 min 0,0 km/h (0 Bft)
18.04.2010 07:00 15,8 C 2,3 C 0,0 UV-I 0,0 C 44 % 84 % 0 % 1014,8 hPa 0,0 l/m 0,0 km/h (0 Bft) 0 min 0,0 km/h (0 Bft)
18.04.2010 07:02 15,8 C 2,2 C 0,0 UV-I 0,0 C 44 % 84 % 0 % 1014,8 hPa 0,0 l/m 0,0 km/h (0 Bft) 0 min 0,0 km/h (0 Bft)
18.04.2010 07:04 15,8 C 2,3 C 0,0 UV-I 0,0 C 44 % 84 % 0 % 1014,8 hPa 0,0 l/m 0,0 km/h (0 Bft) 0 min 0,0 km/h (0 Bft)
18.04.2010 07:06 15,8 C 2,3 C 0,0 UV-I 0,0 C 44 % 84 % 0 % 1014,8 hPa 0,0 l/m 0,0 km/h (0 Bft) 0 min 0,0 km/h (0 Bft)
18.04.2010 07:08 15,8 C 2,3 C 0,0 UV-I 0,0 C 44 % 84 % 0 % 1014,8 hPa 0,0 l/m 0,0 km/h (0 Bft) 0 min 0,0 km/h (0 Bft)
18.04.2010 07:10 15,8 C 2,2 C 0,0 UV-I 0,0 C 44 % 85 % 0 % 1014,8 hPa 0,0 l/m 0,0 km/h (0 Bft) 0 min 0,0 km/h (0 Bft)
18.04.2010 07:12 15,8 C 2,1 C 0,0 UV-I 0,0 C 44 % 85 % 0 % 1014,7 hPa 0,0 l/m 0,0 km/h (0 Bft) 0 min 0,0 km/h (0 Bft)
18.04.2010 07:14 15,8 C 2,2 C 0,0 UV-I 0,0 C 44 % 85 % 0 % 1014,7 hPa 0,0 l/m 0,0 km/h (0 Bft) 0 min 0,0 km/h (0 Bft)
18.04.2010 07:16 15,8 C 2,1 C 0,0 UV-I 0,0 C 44 % 85 % 0 % 1014,7 hPa 0,0 l/m 0,0 km/h (0 Bft) 0 min 0,0 km/h (0 Bft)
18.04.2010 07:18 15,8 C 2,1 C 0,0 UV-I 0,0 C 44 % 85 % 0 % 1014,7 hPa 0,0 l/m 0,0 km/h (0 Bft) 0 min 0,0 km/h (0 Bft)
18.04.2010 07:20 15,8 C 2,1 C 0,0 UV-I 0,0 C 44 % 85 % 0 % 1014,7 hPa 0,0 l/m 0,0 km/h (0 Bft) 0 min 0,0 km/h (0 Bft)
18.04.2010 07:22 15,8 C 2,1 C 0,0 UV-I 0,0 C 44 % 85 % 0 % 1014,7 hPa 0,0 l/m 0,0 km/h (0 Bft) 0 min 0,0 km/h (0 Bft)
18.04.2010 07:24 15,8 C 2,1 C 0,0 UV-I 0,0 C 44 % 85 % 0 % 1014,7 hPa 0,0 l/m 0,0 km/h (0 Bft) 0 min 0,0 km/h (0 Bft)
18.04.2010 07:26 15,8 C 2,1 C 0,1 UV-I 0,0 C 44 % 85 % 0 % 1014,7 hPa 0,0 l/m 0,0 km/h (0 Bft) 0 min 0,0 km/h (0 Bft)
18.04.2010 07:28 15,8 C 2,1 C 0,1 UV-I 0,0 C 44 % 85 % 0 % 1014,7 hPa 0,0 l/m 0,0 km/h (0 Bft) 0 min 0,0 km/h (0 Bft)
18.04.2010 07:32 15,8 C 2,1 C 0,1 UV-I 0,0 C 44 % 86 % 0 % 1014,4 hPa 0,0 l/m 0,0 km/h (0 Bft) 0 min 0,0 km/h (0 Bft)
18.04.2010 07:34 15,8 C 2,2 C 0,1 UV-I 0,0 C 44 % 86 % 0 % 1014,4 hPa 0,0 l/m 0,0 km/h (0 Bft) 0 min 0,0 km/h (0 Bft)
18.04.2010 07:36 15,8 C 2,3 C 0,2 UV-I 0,0 C 45 % 86 % 0 % 1014,4 hPa 0,0 l/m 0,0 km/h (0 Bft) 0 min 0,0 km/h (0 Bft)
18.04.2010 07:38 15,8 C 2,3 C 0,2 UV-I 0,0 C 44 % 86 % 0 % 1014,4 hPa 0,0 l/m 0,0 km/h (0 Bft) 0 min 0,0 km/h (0 Bft)
18.04.2010 07:40 15,6 C 2,3 C 0,1 UV-I 0,0 C 45 % 86 % 0 % 1014,4 hPa 0,0 l/m 0,0 km/h (0 Bft) 0 min 0,0 km/h (0 Bft)
18.04.2010 07:42 15,6 C 2,3 C 0,1 UV-I 0,0 C 45 % 86 % 0 % 1014,4 hPa 0,0 l/m 0,0 km/h (0 Bft) 0 min 0,0 km/h (0 Bft)
18.04.2010 07:44 15,8 C 2,3 C 0,1 UV-I 0,0 C 44 % 86 % 0 % 1014,4 hPa 0,0 l/m 0,0 km/h (0 Bft) 0 min 0,0 km/h (0 Bft)
18.04.2010 07:46 15,8 C 2,3 C 0,0 UV-I 0,0 C 45 % 86 % 0 % 1014,4 hPa 0,0 l/m 0,0 km/h (0 Bft) 0 min 0,0 km/h (0 Bft)
18.04.2010 07:48 15,8 C 2,3 C 0,0 UV-I 0,0 C 45 % 86 % 0 % 1014,4 hPa 0,0 l/m 0,0 km/h (0 Bft) 0 min 0,0 km/h (0 Bft)
18.04.2010 07:50 15,6 C 2,4 C 0,0 UV-I 0,0 C 45 % 86 % 0 % 1014,4 hPa 0,0 l/m 0,0 km/h (0 Bft) 0 min 0,0 km/h (0 Bft)
18.04.2010 07:52 15,8 C 2,4 C 0,0 UV-I 0,0 C 45 % 86 % 0 % 1014,8 hPa 0,0 l/m 0,0 km/h (0 Bft) 0 min 0,0 km/h (0 Bft)
18.04.2010 07:54 15,6 C 2,4 C 0,0 UV-I 0,0 C 45 % 86 % 0 % 1014,8 hPa 0,0 l/m 0,0 km/h (0 Bft) 0 min 0,0 km/h (0 Bft)
18.04.2010 07:56 15,6 C 2,4 C 0,0 UV-I 0,1 C 45 % 86 % 3 % 1014,8 hPa 0,0 l/m 0,0 km/h (0 Bft) 0 min 0,0 km/h (0 Bft)
18.04.2010 07:58 15,6 C 2,4 C 0,0 UV-I 0,2 C 45 % 86 % 6 % 1014,8 hPa 0,0 l/m 0,0 km/h (0 Bft) 0 min 0,0 km/h (0 Bft)
18.04.2010 08:00 15,6 C 2,4 C 0,0 UV-I 0,3 C 45 % 86 % 9 % 1014,8 hPa 0,0 l/m 0,0 km/h (0 Bft) 0 min 0,0 km/h (0 Bft)
18.04.2010 08:02 15,6 C 2,4 C 0,0 UV-I 0,3 C 45 % 86 % 9 % 1014,8 hPa 0,0 l/m 0,0 km/h (0 Bft) 0 min 0,0 km/h (0 Bft)
18.04.2010 08:04 15,6 C 2,4 C 0,0 UV-I 0,3 C 45 % 86 % 9 % 1014,8 hPa 0,0 l/m 0,0 km/h (0 Bft) 0 min 0,0 km/h (0 Bft)
18.04.2010 08:06 15,6 C 2,5 C 0,0 UV-I 0,4 C 45 % 87 % 11 % 1014,8 hPa 0,0 l/m 0,0 km/h (0 Bft) 0 min 0,0 km/h (0 Bft)
18.04.2010 08:08 15,6 C 2,5 C 0,0 UV-I 0,5 C 45 % 87 % 14 % 1014,8 hPa 0,0 l/m 0,0 km/h (0 Bft) 0 min 0,0 km/h (0 Bft)
18.04.2010 08:10 15,6 C 2,6 C 0,0 UV-I 0,5 C 45 % 87 % 14 % 1014,8 hPa 0,0 l/m 0,0 km/h (0 Bft) 0 min 0,0 km/h (0 Bft)
18.04.2010 08:12 15,6 C 2,7 C 0,0 UV-I 0,6 C 45 % 87 % 17 % 1015,0 hPa 0,0 l/m 0,0 km/h (0 Bft) 0 min 0,0 km/h (0 Bft)
18.04.2010 08:14 15,6 C 2,6 C 0,0 UV-I 0,9 C 45 % 87 % 26 % 1015,0 hPa 0,0 l/m 0,4 km/h (0 Bft) 0 min 0,0 km/h (0 Bft)
18.04.2010 08:16 15,6 C 2,7 C 0,1 UV-I 1,3 C 45 % 87 % 37 % 1015,0 hPa 0,0 l/m 0,4 km/h (0 Bft) 0 min 7,6 km/h (2 Bft)
18.04.2010 08:18 15,6 C 2,8 C 0,1 UV-I 1,6 C 45 % 87 % 46 % 1015,0 hPa 0,0 l/m 1,2 km/h (1 Bft) 0 min 10,4 km/h (2 Bft)
18.04.2010 08:20 15,6 C 2,9 C 0,0 UV-I 1,8 C 45 % 87 % 51 % 1015,0 hPa 0,0 l/m 2,4 km/h (1 Bft) 0 min 11,6 km/h (2 Bft)
18.04.2010 08:22 15,6 C 3,0 C 0,0 UV-I 2,0 C 45 % 87 % 57 % 1015,0 hPa 0,0 l/m 4,0 km/h (1 Bft) 0 min 10,4 km/h (2 Bft)
18.04.2010 08:24 15,8 C 3,1 C 0,0 UV-I 2,2 C 45 % 87 % 63 % 1015,0 hPa 0,0 l/m 5,2 km/h (1 Bft) 0 min 10,0 km/h (2 Bft)
18.04.2010 08:26 15,8 C 3,3 C 0,2 UV-I 2,3 C 45 % 87 % 66 % 1015,0 hPa 0,0 l/m 6,0 km/h (2 Bft) 0 min 6,0 km/h (2 Bft)
18.04.2010 08:28 15,6 C 3,5 C 0,2 UV-I 2,2 C 45 % 86 % 63 % 1015,0 hPa 0,0 l/m 6,8 km/h (2 Bft) 0 min 7,6 km/h (2 Bft)
18.04.2010 08:30 15,6 C 3,5 C 0,5 UV-I 2,5 C 45 % 86 % 71 % 1015,0 hPa 0,0 l/m 6,8 km/h (2 Bft) 0 min 12,0 km/h (2 Bft)
18.04.2010 08:32 15,6 C 3,7 C 0,5 UV-I 2,4 C 45 % 86 % 69 % 1014,8 hPa 0,0 l/m 6,4 km/h (2 Bft) 0 min 8,8 km/h (2 Bft)
18.04.2010 08:34 15,6 C 3,7 C 0,5 UV-I 2,5 C 45 % 85 % 71 % 1014,8 hPa 0,0 l/m 6,0 km/h (2 Bft) 0 min 0,0 km/h (0 Bft)
18.04.2010 08:38 15,8 C 3,9 C 0,4 UV-I 2,5 C 45 % 85 % 71 % 1014,8 hPa 0,0 l/m 4,4 km/h (1 Bft) 0 min 10,0 km/h (2 Bft)
18.04.2010 08:40 15,8 C 4,0 C 0,3 UV-I 2,6 C 45 % 85 % 74 % 1014,8 hPa 0,0 l/m 3,6 km/h (1 Bft) 0 min 5,2 km/h (1 Bft)
18.04.2010 08:42 15,8 C 4,0 C 0,3 UV-I 2,7 C 45 % 85 % 77 % 1014,8 hPa 0,0 l/m 3,6 km/h (1 Bft) 0 min 5,6 km/h (1 Bft)
18.04.2010 08:44 15,8 C 4,3 C 0,3 UV-I 2,5 C 45 % 84 % 71 % 1014,8 hPa 0,0 l/m 2,8 km/h (1 Bft) 0 min 7,6 km/h (2 Bft)
18.04.2010 08:46 15,8 C 4,2 C 0,6 UV-I 2,7 C 45 % 84 % 77 % 1014,8 hPa 0,0 l/m 3,6 km/h (1 Bft) 0 min 6,4 km/h (2 Bft)
18.04.2010 08:48 15,8 C 4,4 C 0,6 UV-I 2,6 C 45 % 84 % 74 % 1014,8 hPa 0,0 l/m 4,4 km/h (1 Bft) 0 min 10,4 km/h (2 Bft)
18.04.2010 08:50 15,8 C 4,4 C 0,6 UV-I 2,7 C 45 % 83 % 77 % 1014,8 hPa 0,0 l/m 4,0 km/h (1 Bft) 0 min 13,3 km/h (3 Bft)
18.04.2010 08:52 15,8 C 4,7 C 0,6 UV-I 2,6 C 45 % 83 % 74 % 1014,8 hPa 0,0 l/m 4,8 km/h (1 Bft) 0 min 4,4 km/h (1 Bft)
18.04.2010 08:54 15,8 C 4,7 C 0,6 UV-I 2,6 C 45 % 83 % 74 % 1014,8 hPa 0,0 l/m 4,8 km/h (1 Bft) 0 min 8,8 km/h (2 Bft)
18.04.2010 08:56 15,8 C 4,8 C 0,7 UV-I 2,7 C 45 % 83 % 77 % 1014,8 hPa 0,0 l/m 4,8 km/h (1 Bft) 0 min 5,2 km/h (1 Bft)
18.04.2010 08:58 15,8 C 4,8 C 0,7 UV-I 2,8 C 44 % 83 % 80 % 1014,8 hPa 0,0 l/m 4,4 km/h (1 Bft) 0 min 7,6 km/h (2 Bft)
18.04.2010 09:00 15,8 C 5,1 C 0,4 UV-I 2,5 C 45 % 82 % 71 % 1014,8 hPa 0,0 l/m 5,2 km/h (1 Bft) 0 min 7,6 km/h (2 Bft)
18.04.2010 09:02 15,8 C 5,1 C 0,4 UV-I 2,7 C 45 % 82 % 77 % 1014,8 hPa 0,0 l/m 4,8 km/h (1 Bft) 0 min 0,0 km/h (0 Bft)
18.04.2010 09:04 15,8 C 5,2 C 0,4 UV-I 2,6 C 45 % 82 % 74 % 1014,8 hPa 0,0 l/m 4,8 km/h (1 Bft) 0 min 7,2 km/h (2 Bft)
18.04.2010 09:06 15,8 C 5,3 C 0,7 UV-I 2,7 C 45 % 81 % 77 % 1014,8 hPa 0,0 l/m 5,6 km/h (1 Bft) 0 min 10,0 km/h (2 Bft)
18.04.2010 09:08 15,8 C 5,5 C 0,7 UV-I 2,6 C 45 % 81 % 74 % 1014,8 hPa 0,0 l/m 6,0 km/h (2 Bft) 0 min 8,4 km/h (2 Bft)
18.04.2010 09:12 15,8 C 5,6 C 0,6 UV-I 2,7 C 44 % 81 % 77 % 1014,4 hPa 0,0 l/m 5,2 km/h (1 Bft) 0 min 8,8 km/h (2 Bft)
18.04.2010 09:14 15,9 C 5,6 C 0,6 UV-I 2,8 C 45 % 81 % 80 % 1014,4 hPa 0,0 l/m 6,4 km/h (2 Bft) 0 min 12,4 km/h (3 Bft)
18.04.2010 09:16 15,8 C 5,9 C 0,4 UV-I 2,6 C 44 % 80 % 74 % 1014,4 hPa 0,0 l/m 6,8 km/h (2 Bft) 0 min 9,6 km/h (2 Bft)
18.04.2010 09:18 15,8 C 5,8 C 0,4 UV-I 2,8 C 44 % 80 % 80 % 1014,4 hPa 0,0 l/m 6,8 km/h (2 Bft) 0 min 10,4 km/h (2 Bft)
18.04.2010 09:20 15,8 C 6,0 C 0,7 UV-I 2,7 C 44 % 80 % 77 % 1014,4 hPa 0,0 l/m 6,4 km/h (2 Bft) 0 min 14,5 km/h (3 Bft)
18.04.2010 09:22 15,9 C 6,0 C 0,7 UV-I 2,8 C 44 % 80 % 80 % 1014,4 hPa 0,0 l/m 6,4 km/h (2 Bft) 0 min 5,6 km/h (1 Bft)
18.04.2010 09:24 15,8 C 6,3 C 0,7 UV-I 2,6 C 44 % 79 % 74 % 1014,4 hPa 0,0 l/m 6,0 km/h (2 Bft) 0 min 10,8 km/h (2 Bft)
18.04.2010 09:26 15,8 C 6,3 C 0,9 UV-I 2,7 C 44 % 79 % 77 % 1014,4 hPa 0,0 l/m 4,8 km/h (1 Bft) 0 min 0,0 km/h (0 Bft)
18.04.2010 09:28 15,9 C 6,4 C 0,9 UV-I 2,7 C 44 % 79 % 77 % 1014,4 hPa 0,0 l/m 3,6 km/h (1 Bft) 0 min 0,0 km/h (0 Bft)
18.04.2010 09:30 15,9 C 6,4 C 1,3 UV-I 2,8 C 44 % 79 % 80 % 1014,4 hPa 0,0 l/m 3,2 km/h (1 Bft) 0 min 0,0 km/h (0 Bft)
18.04.2010 09:32 15,9 C 6,6 C 1,3 UV-I 2,7 C 44 % 79 % 77 % 1014,5 hPa 0,0 l/m 2,4 km/h (1 Bft) 0 min 0,0 km/h (0 Bft)
18.04.2010 09:34 15,9 C 6,7 C 1,3 UV-I 2,8 C 44 % 79 % 80 % 1014,5 hPa 0,0 l/m 2,0 km/h (1 Bft) 0 min 0,0 km/h (0 Bft)
18.04.2010 09:36 15,9 C 6,8 C 1,3 UV-I 2,8 C 44 % 78 % 80 % 1014,5 hPa 0,0 l/m 1,6 km/h (1 Bft) 0 min 0,0 km/h (0 Bft)
18.04.2010 09:38 15,8 C 6,8 C 1,3 UV-I 2,9 C 44 % 78 % 83 % 1014,5 hPa 0,0 l/m 1,2 km/h (1 Bft) 2 min 0,0 km/h (0 Bft)
18.04.2010 09:40 16,0 C 6,9 C 1,4 UV-I 2,8 C 44 % 78 % 80 % 1014,5 hPa 0,0 l/m 0,8 km/h (0 Bft) 0 min 6,8 km/h (2 Bft)
18.04.2010 09:44 16,0 C 7,2 C 1,4 UV-I 2,8 C 45 % 78 % 80 % 1014,5 hPa 0,0 l/m 0,8 km/h (0 Bft) 0 min 8,0 km/h (2 Bft)
18.04.2010 09:46 16,0 C 7,2 C 1,4 UV-I 3,0 C 44 % 78 % 86 % 1014,5 hPa 0,0 l/m 1,2 km/h (1 Bft) 2 min 0,0 km/h (0 Bft)
18.04.2010 09:48 16,0 C 7,2 C 1,4 UV-I 3,5 C 44 % 77 % 100 % 1014,5 hPa 0,0 l/m 1,2 km/h (1 Bft) 2 min 0,0 km/h (0 Bft)
18.04.2010 09:50 16,0 C 7,5 C 1,1 UV-I 4,7 C 45 % 77 % 100 % 1014,5 hPa 0,0 l/m 1,2 km/h (1 Bft) 2 min 0,0 km/h (0 Bft)
18.04.2010 09:52 16,0 C 7,5 C 1,1 UV-I 6,4 C 45 % 77 % 100 % 1014,6 hPa 0,0 l/m 0,8 km/h (0 Bft) 2 min 0,0 km/h (0 Bft)
18.04.2010 09:54 16,0 C 7,6 C 1,1 UV-I 7,2 C 45 % 77 % 100 % 1014,6 hPa 0,0 l/m 0,8 km/h (0 Bft) 2 min 0,0 km/h (0 Bft)
18.04.2010 09:56 16,0 C 7,6 C 1,5 UV-I 8,1 C 45 % 76 % 100 % 1014,6 hPa 0,0 l/m 0,4 km/h (0 Bft) 2 min 0,0 km/h (0 Bft)
18.04.2010 09:58 16,0 C 7,8 C 1,5 UV-I 8,6 C 45 % 76 % 100 % 1014,6 hPa 0,0 l/m 0,8 km/h (0 Bft) 2 min 0,0 km/h (0 Bft)
18.04.2010 10:00 16,0 C 7,9 C 1,4 UV-I 9,1 C 45 % 76 % 100 % 1014,6 hPa 0,0 l/m 0,8 km/h (0 Bft) 2 min 8,0 km/h (2 Bft)
18.04.2010 10:02 16,0 C 7,9 C 1,4 UV-I 9,7 C 45 % 76 % 100 % 1014,6 hPa 0,0 l/m 2,0 km/h (1 Bft) 2 min 4,8 km/h (1 Bft)
18.04.2010 10:04 16,0 C 8,1 C 1,4 UV-I 9,5 C 45 % 76 % 100 % 1014,6 hPa 0,0 l/m 2,8 km/h (1 Bft) 2 min 4,8 km/h (1 Bft)
18.04.2010 10:06 16,0 C 8,3 C 1,4 UV-I 9,6 C 45 % 76 % 100 % 1014,6 hPa 0,0 l/m 3,2 km/h (1 Bft) 2 min 7,2 km/h (2 Bft)
18.04.2010 10:08 15,9 C 8,4 C 1,4 UV-I 9,6 C 45 % 75 % 100 % 1014,6 hPa 0,0 l/m 3,2 km/h (1 Bft) 2 min 0,0 km/h (0 Bft)
18.04.2010 10:10 15,9 C 8,5 C 1,5 UV-I 9,8 C 45 % 75 % 100 % 1014,6 hPa 0,0 l/m 3,2 km/h (1 Bft) 2 min 0,0 km/h (0 Bft)
18.04.2010 10:12 15,9 C 8,7 C 1,5 UV-I 10,2 C 45 % 75 % 100 % 1014,4 hPa 0,0 l/m 3,2 km/h (1 Bft) 2 min 10,0 km/h (2 Bft)
18.04.2010 10:14 15,9 C 8,9 C 1,5 UV-I 10,2 C 45 % 74 % 100 % 1014,4 hPa 0,0 l/m 2,4 km/h (1 Bft) 2 min 0,0 km/h (0 Bft)
18.04.2010 10:16 15,9 C 8,9 C 1,4 UV-I 10,4 C 45 % 74 % 100 % 1014,4 hPa 0,0 l/m 2,8 km/h (1 Bft) 2 min 7,6 km/h (2 Bft)
18.04.2010 10:18 15,9 C 9,2 C 1,4 UV-I 10,4 C 45 % 73 % 100 % 1014,4 hPa 0,0 l/m 1,6 km/h (1 Bft) 2 min 0,0 km/h (0 Bft)
18.04.2010 10:20 15,9 C 9,3 C 1,4 UV-I 10,9 C 45 % 73 % 100 % 1014,4 hPa 0,0 l/m 2,0 km/h (1 Bft) 2 min 5,2 km/h (1 Bft)
18.04.2010 10:22 15,9 C 9,7 C 1,4 UV-I 10,7 C 45 % 72 % 100 % 1014,4 hPa 0,0 l/m 2,0 km/h (1 Bft) 2 min 0,0 km/h (0 Bft)
18.04.2010 10:24 16,1 C 9,7 C 1,4 UV-I 10,9 C 45 % 72 % 100 % 1014,4 hPa 0,0 l/m 2,0 km/h (1 Bft) 2 min 7,2 km/h (2 Bft)
18.04.2010 10:26 16,1 C 9,9 C 1,6 UV-I 10,5 C 45 % 72 % 100 % 1014,4 hPa 0,0 l/m 2,4 km/h (1 Bft) 2 min 0,0 km/h (0 Bft)
18.04.2010 10:28 15,9 C 10,0 C 1,6 UV-I 10,5 C 45 % 72 % 100 % 1014,4 hPa 0,0 l/m 2,0 km/h (1 Bft) 2 min 0,0 km/h (0 Bft)
18.04.2010 10:30 16,1 C 10,3 C 1,5 UV-I 10,7 C 45 % 71 % 100 % 1014,4 hPa 0,0 l/m 2,0 km/h (1 Bft) 2 min 4,0 km/h (1 Bft)
18.04.2010 10:34 16,1 C 10,6 C 1,5 UV-I 10,9 C 45 % 70 % 100 % 1014,5 hPa 0,0 l/m 2,0 km/h (1 Bft) 2 min 0,0 km/h (0 Bft)
18.04.2010 10:36 16,1 C 10,8 C 1,6 UV-I 10,7 C 45 % 70 % 100 % 1014,5 hPa 0,0 l/m 1,2 km/h (1 Bft) 2 min 0,0 km/h (0 Bft)
18.04.2010 10:38 16,1 C 10,9 C 1,6 UV-I 11,2 C 45 % 69 % 100 % 1014,5 hPa 0,0 l/m 1,2 km/h (1 Bft) 2 min 5,2 km/h (1 Bft)
18.04.2010 10:40 16,1 C 11,1 C 1,8 UV-I 11,2 C 45 % 69 % 100 % 1014,5 hPa 0,0 l/m 1,2 km/h (1 Bft) 2 min 0,0 km/h (0 Bft)
18.04.2010 10:42 16,1 C 11,3 C 1,8 UV-I 11,6 C 45 % 69 % 100 % 1014,5 hPa 0,0 l/m 0,8 km/h (0 Bft) 2 min 0,0 km/h (0 Bft)
18.04.2010 10:44 16,1 C 11,4 C 1,8 UV-I 11,7 C 45 % 68 % 100 % 1014,5 hPa 0,0 l/m 0,4 km/h (0 Bft) 2 min 4,4 km/h (1 Bft)
18.04.2010 10:46 16,2 C 11,6 C 2,2 UV-I 11,4 C 45 % 68 % 100 % 1014,5 hPa 0,0 l/m 1,2 km/h (1 Bft) 2 min 5,6 km/h (1 Bft)
18.04.2010 10:48 16,2 C 11,9 C 2,2 UV-I 11,0 C 45 % 67 % 100 % 1014,5 hPa 0,0 l/m 1,2 km/h (1 Bft) 2 min 4,0 km/h (1 Bft)
18.04.2010 10:50 16,2 C 12,1 C 2,6 UV-I 10,6 C 45 % 66 % 100 % 1014,5 hPa 0,0 l/m 1,6 km/h (1 Bft) 2 min 4,4 km/h (1 Bft)
18.04.2010 10:52 16,2 C 12,3 C 2,6 UV-I 10,6 C 45 % 65 % 100 % 1014,6 hPa 0,0 l/m 1,6 km/h (1 Bft) 2 min 0,0 km/h (0 Bft)
18.04.2010 10:54 16,2 C 12,3 C 2,6 UV-I 10,8 C 45 % 65 % 100 % 1014,6 hPa 0,0 l/m 1,6 km/h (1 Bft) 2 min 0,0 km/h (0 Bft)
18.04.2010 10:56 16,2 C 12,4 C 2,3 UV-I 10,8 C 45 % 65 % 100 % 1014,6 hPa 0,0 l/m 1,2 km/h (1 Bft) 2 min 4,8 km/h (1 Bft)
18.04.2010 10:58 16,2 C 12,7 C 2,3 UV-I 10,5 C 45 % 64 % 100 % 1014,6 hPa 0,0 l/m 1,2 km/h (1 Bft) 2 min 0,0 km/h (0 Bft)
18.04.2010 11:00 16,2 C 12,8 C 8,6 UV-I 10,4 C 45 % 64 % 100 % 1014,6 hPa 0,0 l/m 0,8 km/h (0 Bft) 2 min 0,0 km/h (0 Bft)
18.04.2010 11:02 16,2 C 12,9 C 8,6 UV-I 10,5 C 45 % 63 % 100 % 1014,6 hPa 0,0 l/m 1,6 km/h (1 Bft) 2 min 8,0 km/h (2 Bft)
18.04.2010 11:04 16,2 C 13,0 C 8,6 UV-I 10,1 C 45 % 62 % 100 % 1014,6 hPa 0,0 l/m 3,2 km/h (1 Bft) 2 min 10,4 km/h (2 Bft)
18.04.2010 11:06 16,2 C 13,3 C 6,8 UV-I 9,4 C 45 % 62 % 100 % 1014,6 hPa 0,0 l/m 4,4 km/h (1 Bft) 2 min 10,0 km/h (2 Bft)
18.04.2010 11:08 16,2 C 13,4 C 6,8 UV-I 8,9 C 45 % 61 % 100 % 1014,6 hPa 0,0 l/m 4,4 km/h (1 Bft) 2 min 0,0 km/h (0 Bft)
18.04.2010 11:10 16,3 C 13,6 C 9,8 UV-I 8,7 C 45 % 60 % 100 % 1014,6 hPa 0,0 l/m 4,4 km/h (1 Bft) 2 min 0,0 km/h (0 Bft)
18.04.2010 11:12 16,3 C 13,6 C 9,8 UV-I 9,4 C 45 % 60 % 100 % 1014,8 hPa 0,0 l/m 4,4 km/h (1 Bft) 2 min 0,0 km/h (0 Bft)
18.04.2010 11:14 16,3 C 13,7 C 9,8 UV-I 9,8 C 45 % 59 % 100 % 1014,8 hPa 0,0 l/m 2,8 km/h (1 Bft) 2 min 0,0 km/h (0 Bft)
18.04.2010 11:16 16,3 C 13,9 C 4,3 UV-I 9,7 C 45 % 59 % 100 % 1014,8 hPa 0,0 l/m 2,0 km/h (1 Bft) 2 min 6,4 km/h (2 Bft)
18.04.2010 11:18 16,3 C 14,1 C 4,3 UV-I 9,6 C 45 % 58 % 100 % 1014,8 hPa 0,0 l/m 1,2 km/h (1 Bft) 2 min 0,0 km/h (0 Bft)
18.04.2010 11:20 16,2 C 14,2 C 4,6 UV-I 10,0 C 45 % 58 % 100 % 1014,8 hPa 0,0 l/m 1,2 km/h (1 Bft) 2 min 5,2 km/h (1 Bft)
18.04.2010 11:22 16,4 C 14,3 C 4,6 UV-I 10,2 C 45 % 58 % 100 % 1014,8 hPa 0,0 l/m 1,2 km/h (1 Bft) 2 min 0,0 km/h (0 Bft)
18.04.2010 11:24 16,2 C 14,4 C 4,6 UV-I 10,4 C 45 % 57 % 100 % 1014,8 hPa 0,0 l/m 2,0 km/h (1 Bft) 2 min 10,0 km/h (2 Bft)
18.04.2010 11:26 16,4 C 14,7 C 9,2 UV-I 9,6 C 45 % 56 % 100 % 1014,8 hPa 0,0 l/m 3,2 km/h (1 Bft) 2 min 5,6 km/h (1 Bft)
18.04.2010 11:28 16,4 C 14,9 C 9,2 UV-I 9,1 C 45 % 56 % 100 % 1014,8 hPa 0,0 l/m 2,8 km/h (1 Bft) 2 min 0,0 km/h (0 Bft)
18.04.2010 11:30 16,4 C 15,1 C 3,3 UV-I 9,0 C 45 % 56 % 100 % 1014,8 hPa 0,0 l/m 3,2 km/h (1 Bft) 2 min 0,0 km/h (0 Bft)
18.04.2010 11:32 16,4 C 15,2 C 3,3 UV-I 8,9 C 45 % 55 % 100 % 1014,6 hPa 0,0 l/m 2,8 km/h (1 Bft) 2 min 0,0 km/h (0 Bft)
18.04.2010 11:34 16,4 C 15,3 C 3,3 UV-I 9,0 C 45 % 55 % 100 % 1014,6 hPa 0,0 l/m 2,8 km/h (1 Bft) 2 min 0,0 km/h (0 Bft)
18.04.2010 11:36 16,4 C 15,5 C 4,5 UV-I 9,2 C 45 % 54 % 100 % 1014,6 hPa 0,0 l/m 1,6 km/h (1 Bft) 2 min 4,4 km/h (1 Bft)
18.04.2010 11:38 16,4 C 15,6 C 4,5 UV-I 9,3 C 45 % 53 % 100 % 1014,6 hPa 0,0 l/m 1,6 km/h (1 Bft) 2 min 5,2 km/h (1 Bft)
18.04.2010 11:40 16,4 C 15,9 C 4,8 UV-I 8,9 C 45 % 52 % 100 % 1014,6 hPa 0,0 l/m 1,6 km/h (1 Bft) 2 min 5,2 km/h (1 Bft)
18.04.2010 11:42 16,4 C 15,9 C 4,8 UV-I 8,9 C 45 % 52 % 100 % 1014,6 hPa 0,0 l/m 2,4 km/h (1 Bft) 2 min 4,8 km/h (1 Bft)
18.04.2010 11:44 16,4 C 16,0 C 4,8 UV-I 8,8 C 45 % 50 % 100 % 1014,6 hPa 0,0 l/m 2,4 km/h (1 Bft) 2 min 0,0 km/h (0 Bft)
18.04.2010 11:46 16,4 C 16,2 C 2,5 UV-I 8,6 C 45 % 50 % 100 % 1014,6 hPa 0,0 l/m 3,6 km/h (1 Bft) 2 min 8,0 km/h (2 Bft)
18.04.2010 11:48 16,4 C 16,4 C 2,5 UV-I 8,3 C 45 % 49 % 100 % 1014,6 hPa 0,0 l/m 2,8 km/h (1 Bft) 2 min 0,0 km/h (0 Bft)
18.04.2010 11:50 16,4 C 16,4 C 2,9 UV-I 8,6 C 45 % 49 % 100 % 1014,6 hPa 0,0 l/m 2,8 km/h (1 Bft) 2 min 8,4 km/h (2 Bft)
18.04.2010 11:52 16,4 C 16,7 C 2,9 UV-I 8,3 C 45 % 48 % 100 % 1014,5 hPa 0,0 l/m 2,0 km/h (1 Bft) 2 min 0,0 km/h (0 Bft)
18.04.2010 11:54 16,4 C 16,8 C 2,9 UV-I 8,2 C 45 % 47 % 100 % 1014,5 hPa 0,0 l/m 2,0 km/h (1 Bft) 2 min 0,0 km/h (0 Bft)
18.04.2010 11:56 16,4 C 16,9 C 10,2 UV-I 8,4 C 45 % 46 % 100 % 1014,5 hPa 0,0 l/m 1,6 km/h (1 Bft) 2 min 0,0 km/h (0 Bft)
18.04.2010 11:58 16,5 C 16,9 C 10,2 UV-I 8,6 C 45 % 46 % 100 % 1014,5 hPa 0,0 l/m 1,2 km/h (1 Bft) 2 min 5,2 km/h (1 Bft)
18.04.2010 12:02 16,5 C 17,3 C 10,0 UV-I 7,8 C 45 % 46 % 100 % 1014,5 hPa 0,0 l/m 4,0 km/h (1 Bft) 2 min 16,1 km/h (3 Bft)
18.04.2010 12:04 16,5 C 17,3 C 10,0 UV-I 7,8 C 45 % 46 % 100 % 1014,5 hPa 0,0 l/m 4,0 km/h (1 Bft) 2 min 7,2 km/h (2 Bft)
18.04.2010 12:06 16,5 C 17,5 C 10,1 UV-I 7,3 C 45 % 46 % 100 % 1014,5 hPa 0,0 l/m 4,0 km/h (1 Bft) 2 min 0,0 km/h (0 Bft)
18.04.2010 12:08 16,6 C 17,5 C 10,1 UV-I 7,8 C 45 % 45 % 100 % 1014,5 hPa 0,0 l/m 4,0 km/h (1 Bft) 2 min 0,0 km/h (0 Bft)
18.04.2010 12:10 16,5 C 17,7 C 10,3 UV-I 7,9 C 45 % 44 % 100 % 1014,5 hPa 0,0 l/m 4,0 km/h (1 Bft) 2 min 7,6 km/h (2 Bft)
18.04.2010 12:12 16,6 C 17,7 C 10,3 UV-I 7,9 C 45 % 43 % 100 % 1014,4 hPa 0,0 l/m 2,4 km/h (1 Bft) 2 min 0,0 km/h (0 Bft)
18.04.2010 12:14 16,6 C 17,9 C 10,3 UV-I 7,6 C 45 % 42 % 100 % 1014,4 hPa 0,0 l/m 1,6 km/h (1 Bft) 2 min 0,0 km/h (0 Bft)
18.04.2010 12:16 16,6 C 18,1 C 10,6 UV-I 7,5 C 45 % 41 % 100 % 1014,4 hPa 0,0 l/m 2,0 km/h (1 Bft) 2 min 8,0 km/h (2 Bft)
18.04.2010 12:18 16,6 C 18,1 C 10,6 UV-I 7,8 C 44 % 41 % 100 % 1014,4 hPa 0,0 l/m 2,8 km/h (1 Bft) 2 min 0,0 km/h (0 Bft)
18.04.2010 12:20 16,6 C 18,0 C 10,7 UV-I 8,2 C 44 % 40 % 100 % 1014,4 hPa 0,0 l/m 2,4 km/h (1 Bft) 2 min 0,0 km/h (0 Bft)
18.04.2010 12:22 16,6 C 18,1 C 10,7 UV-I 8,4 C 44 % 41 % 100 % 1014,4 hPa 0,0 l/m 1,6 km/h (1 Bft) 2 min 0,0 km/h (0 Bft)
18.04.2010 12:24 16,6 C 18,0 C 10,7 UV-I 8,8 C 44 % 41 % 100 % 1014,4 hPa 0,0 l/m 1,6 km/h (1 Bft) 2 min 0,0 km/h (0 Bft)
18.04.2010 12:26 16,7 C 18,2 C 10,6 UV-I 8,7 C 44 % 41 % 100 % 1014,4 hPa 0,0 l/m 2,0 km/h (1 Bft) 2 min 9,6 km/h (2 Bft)
18.04.2010 12:28 16,7 C 18,3 C 10,6 UV-I 8,6 C 44 % 40 % 100 % 1014,4 hPa 0,0 l/m 1,6 km/h (1 Bft) 2 min 0,0 km/h (0 Bft)
18.04.2010 12:32 16,7 C 18,5 C 10,3 UV-I 8,2 C 44 % 41 % 100 % 1013,9 hPa 0,0 l/m 2,0 km/h (1 Bft) 2 min 5,2 km/h (1 Bft)
18.04.2010 12:34 16,7 C 18,7 C 10,3 UV-I 7,9 C 44 % 40 % 100 % 1013,9 hPa 0,0 l/m 2,4 km/h (1 Bft) 2 min 0,0 km/h (0 Bft)
18.04.2010 12:36 16,8 C 18,7 C 10,5 UV-I 7,9 C 44 % 39 % 100 % 1013,9 hPa 0,0 l/m 3,2 km/h (1 Bft) 2 min 4,0 km/h (1 Bft)
18.04.2010 12:38 16,8 C 18,8 C 10,5 UV-I 7,8 C 44 % 38 % 100 % 1013,9 hPa 0,0 l/m 2,4 km/h (1 Bft) 2 min 0,0 km/h (0 Bft)
18.04.2010 12:40 16,8 C 18,9 C 10,6 UV-I 7,9 C 44 % 39 % 100 % 1013,9 hPa 0,0 l/m 2,0 km/h (1 Bft) 2 min 5,2 km/h (1 Bft)
18.04.2010 12:44 16,8 C 19,2 C 10,6 UV-I 7,7 C 44 % 38 % 100 % 1013,9 hPa 0,0 l/m 2,4 km/h (1 Bft) 2 min 4,0 km/h (1 Bft)
18.04.2010 12:46 16,8 C 19,3 C 10,6 UV-I 7,5 C 44 % 38 % 100 % 1013,9 hPa 0,0 l/m 2,4 km/h (1 Bft) 2 min 8,4 km/h (2 Bft)
18.04.2010 12:48 16,8 C 19,5 C 10,6 UV-I 7,4 C 44 % 38 % 100 % 1013,9 hPa 0,0 l/m 2,8 km/h (1 Bft) 2 min 7,2 km/h (2 Bft)
18.04.2010 12:50 16,9 C 19,4 C 10,4 UV-I 7,5 C 44 % 37 % 100 % 1013,9 hPa 0,0 l/m 2,8 km/h (1 Bft) 2 min 0,0 km/h (0 Bft)
18.04.2010 12:52 16,9 C 19,5 C 10,4 UV-I 7,4 C 44 % 37 % 100 % 1013,9 hPa 0,0 l/m 2,4 km/h (1 Bft) 2 min 0,0 km/h (0 Bft)
18.04.2010 12:54 16,9 C 19,6 C 10,4 UV-I 7,4 C 44 % 36 % 100 % 1013,9 hPa 0,0 l/m 2,8 km/h (1 Bft) 2 min 6,8 km/h (2 Bft)
18.04.2010 12:56 16,9 C 19,8 C 10,3 UV-I 7,2 C 44 % 36 % 100 % 1013,9 hPa 0,0 l/m 2,8 km/h (1 Bft) 2 min 6,8 km/h (2 Bft)
18.04.2010 12:58 17,0 C 19,9 C 10,3 UV-I 7,1 C 44 % 36 % 100 % 1013,9 hPa 0,0 l/m 2,8 km/h (1 Bft) 2 min 5,2 km/h (1 Bft)
18.04.2010 13:00 17,0 C 19,9 C 11,2 UV-I 7,1 C 44 % 36 % 100 % 1013,9 hPa 0,0 l/m 2,8 km/h (1 Bft) 2 min 8,8 km/h (2 Bft)
18.04.2010 13:04 17,0 C 20,0 C 11,2 UV-I 6,6 C 44 % 36 % 100 % 1013,9 hPa 0,0 l/m 3,6 km/h (1 Bft) 2 min 0,0 km/h (0 Bft)
18.04.2010 13:06 17,1 C 20,1 C 11,2 UV-I 6,7 C 44 % 36 % 100 % 1013,9 hPa 0,0 l/m 3,6 km/h (1 Bft) 2 min 4,8 km/h (1 Bft)
18.04.2010 13:08 17,1 C 20,3 C 11,2 UV-I 6,4 C 44 % 36 % 100 % 1013,9 hPa 0,0 l/m 3,2 km/h (1 Bft) 2 min 4,0 km/h (1 Bft)
18.04.2010 13:10 17,2 C 20,3 C 10,9 UV-I 6,6 C 44 % 36 % 100 % 1013,9 hPa 0,0 l/m 2,4 km/h (1 Bft) 2 min 0,0 km/h (0 Bft)
18.04.2010 13:12 17,2 C 20,3 C 10,9 UV-I 6,9 C 44 % 36 % 100 % 1013,9 hPa 0,0 l/m 1,6 km/h (1 Bft) 2 min 4,0 km/h (1 Bft)
18.04.2010 13:14 17,2 C 20,4 C 10,9 UV-I 7,0 C 44 % 35 % 100 % 1013,9 hPa 0,0 l/m 2,0 km/h (1 Bft) 2 min 4,4 km/h (1 Bft)
18.04.2010 13:16 17,2 C 20,4 C 10,8 UV-I 7,0 C 44 % 35 % 100 % 1013,9 hPa 0,0 l/m 2,8 km/h (1 Bft) 2 min 9,6 km/h (2 Bft)
18.04.2010 13:20 17,4 C 20,3 C 11,0 UV-I 6,9 C 44 % 34 % 100 % 1013,9 hPa 0,0 l/m 4,8 km/h (1 Bft) 2 min 9,6 km/h (2 Bft)
18.04.2010 13:22 17,4 C 20,3 C 11,0 UV-I 6,7 C 43 % 34 % 100 % 1013,9 hPa 0,0 l/m 4,8 km/h (1 Bft) 2 min 5,6 km/h (1 Bft)
18.04.2010 13:24 17,4 C 20,3 C 11,0 UV-I 6,5 C 43 % 35 % 100 % 1013,9 hPa 0,0 l/m 5,6 km/h (1 Bft) 2 min 6,8 km/h (2 Bft)
18.04.2010 13:26 17,5 C 20,4 C 10,9 UV-I 6,4 C 43 % 34 % 100 % 1013,9 hPa 0,0 l/m 7,2 km/h (2 Bft) 2 min 14,1 km/h (3 Bft)
18.04.2010 13:28 17,6 C 20,4 C 10,9 UV-I 6,2 C 43 % 34 % 100 % 1013,9 hPa 0,0 l/m 7,2 km/h (2 Bft) 2 min 6,8 km/h (2 Bft)
18.04.2010 13:30 17,6 C 20,5 C 10,7 UV-I 6,0 C 43 % 34 % 100 % 1013,9 hPa 0,0 l/m 6,4 km/h (2 Bft) 2 min 5,2 km/h (1 Bft)
18.04.2010 13:32 17,7 C 20,5 C 10,7 UV-I 5,9 C 43 % 35 % 100 % 1013,7 hPa 0,0 l/m 5,6 km/h (1 Bft) 2 min 4,0 km/h (1 Bft)
18.04.2010 13:34 17,8 C 20,7 C 10,7 UV-I 5,9 C 43 % 33 % 100 % 1013,7 hPa 0,0 l/m 6,0 km/h (2 Bft) 2 min 10,8 km/h (2 Bft)
18.04.2010 13:36 17,8 C 20,7 C 11,1 UV-I 6,0 C 43 % 33 % 100 % 1013,7 hPa 0,0 l/m 5,2 km/h (1 Bft) 2 min 4,4 km/h (1 Bft)
18.04.2010 13:38 17,9 C 20,9 C 11,1 UV-I 6,0 C 43 % 34 % 100 % 1013,7 hPa 0,0 l/m 3,6 km/h (1 Bft) 2 min 12,4 km/h (3 Bft)
18.04.2010 13:40 18,0 C 20,8 C 11,6 UV-I 6,2 C 42 % 33 % 100 % 1013,7 hPa 0,0 l/m 4,0 km/h (1 Bft) 2 min 6,8 km/h (2 Bft)
18.04.2010 13:42 18,0 C 20,8 C 11,6 UV-I 6,3 C 42 % 33 % 100 % 1013,7 hPa 0,0 l/m 4,4 km/h (1 Bft) 2 min 5,6 km/h (1 Bft)
18.04.2010 13:44 18,1 C 20,9 C 11,6 UV-I 6,2 C 43 % 32 % 100 % 1013,7 hPa 0,0 l/m 4,8 km/h (1 Bft) 2 min 8,4 km/h (2 Bft)
18.04.2010 13:46 18,1 C 20,8 C 11,8 UV-I 6,3 C 42 % 32 % 100 % 1013,7 hPa 0,0 l/m 4,8 km/h (1 Bft) 2 min 5,6 km/h (1 Bft)
18.04.2010 13:48 18,2 C 20,8 C 11,8 UV-I 6,4 C 42 % 32 % 100 % 1013,7 hPa 0,0 l/m 5,6 km/h (1 Bft) 2 min 6,4 km/h (2 Bft)
18.04.2010 13:50 18,2 C 20,9 C 12,0 UV-I 6,3 C 42 % 32 % 100 % 1013,7 hPa 0,0 l/m 6,0 km/h (2 Bft) 2 min 7,6 km/h (2 Bft)
18.04.2010 13:52 18,2 C 21,0 C 12,0 UV-I 6,2 C 42 % 33 % 100 % 1014,2 hPa 0,0 l/m 4,8 km/h (1 Bft) 2 min 4,4 km/h (1 Bft)
18.04.2010 13:54 18,4 C 21,2 C 12,0 UV-I 6,1 C 42 % 33 % 100 % 1014,2 hPa 0,0 l/m 4,0 km/h (1 Bft) 2 min 5,6 km/h (1 Bft)
18.04.2010 13:56 18,4 C 21,2 C 10,8 UV-I 6,3 C 42 % 32 % 100 % 1014,2 hPa 0,0 l/m 3,6 km/h (1 Bft) 2 min 4,0 km/h (1 Bft)
18.04.2010 13:58 18,5 C 21,3 C 10,8 UV-I 6,2 C 42 % 31 % 100 % 1014,2 hPa 0,0 l/m 4,0 km/h (1 Bft) 2 min 4,8 km/h (1 Bft)
18.04.2010 14:00 18,6 C 21,2 C 12,3 UV-I 6,3 C 42 % 31 % 100 % 1014,2 hPa 0,0 l/m 4,0 km/h (1 Bft) 2 min 12,0 km/h (2 Bft)
18.04.2010 14:02 18,7 C 21,1 C 12,3 UV-I 6,4 C 42 % 31 % 100 % 1014,2 hPa 0,0 l/m 4,8 km/h (1 Bft) 2 min 8,0 km/h (2 Bft)
18.04.2010 14:04 18,7 C 21,2 C 12,3 UV-I 6,1 C 41 % 32 % 100 % 1014,2 hPa 0,0 l/m 5,2 km/h (1 Bft) 2 min 8,8 km/h (2 Bft)
18.04.2010 14:06 18,8 C 21,2 C 11,2 UV-I 6,2 C 41 % 32 % 100 % 1014,2 hPa 0,0 l/m 5,2 km/h (1 Bft) 2 min 9,2 km/h (2 Bft)
18.04.2010 14:08 18,9 C 21,4 C 11,2 UV-I 6,1 C 41 % 31 % 100 % 1014,2 hPa 0,0 l/m 4,8 km/h (1 Bft) 2 min 7,2 km/h (2 Bft)
18.04.2010 14:10 18,9 C 21,5 C 11,3 UV-I 6,0 C 41 % 31 % 100 % 1014,2 hPa 0,0 l/m 4,4 km/h (1 Bft) 2 min 0,0 km/h (0 Bft)
18.04.2010 14:12 19,0 C 21,6 C 11,3 UV-I 5,8 C 41 % 31 % 100 % 1016,1 hPa 0,0 l/m 4,0 km/h (1 Bft) 2 min 12,4 km/h (3 Bft)
18.04.2010 14:14 19,1 C 21,6 C 11,3 UV-I 5,8 C 41 % 30 % 100 % 1016,1 hPa 0,0 l/m 5,2 km/h (1 Bft) 2 min 20,5 km/h (4 Bft)
18.04.2010 14:16 19,1 C 21,6 C 11,5 UV-I 5,8 C 41 % 31 % 100 % 1016,1 hPa 0,0 l/m 6,0 km/h (2 Bft) 2 min 8,8 km/h (2 Bft)
18.04.2010 14:18 19,2 C 21,6 C 11,5 UV-I 5,7 C 40 % 31 % 100 % 1016,1 hPa 0,0 l/m 6,8 km/h (2 Bft) 2 min 11,2 km/h (2 Bft)
18.04.2010 14:20 19,3 C 21,6 C 11,5 UV-I 5,6 C 40 % 31 % 100 % 1016,1 hPa 0,0 l/m 7,6 km/h (2 Bft) 2 min 20,5 km/h (4 Bft)
18.04.2010 14:24 19,4 C 21,6 C 11,5 UV-I 5,5 C 40 % 31 % 100 % 1016,1 hPa 0,0 l/m 8,0 km/h (2 Bft) 2 min 16,9 km/h (3 Bft)
18.04.2010 14:26 19,5 C 21,6 C 11,4 UV-I 5,5 C 40 % 31 % 100 % 1016,1 hPa 0,0 l/m 7,2 km/h (2 Bft) 2 min 5,6 km/h (1 Bft)
18.04.2010 14:28 19,6 C 21,7 C 11,4 UV-I 5,5 C 40 % 31 % 100 % 1016,1 hPa 0,0 l/m 6,4 km/h (2 Bft) 2 min 4,0 km/h (1 Bft)
18.04.2010 14:30 19,6 C 21,8 C 11,7 UV-I 5,7 C 39 % 31 % 100 % 1016,1 hPa 0,0 l/m 4,8 km/h (1 Bft) 2 min 4,4 km/h (1 Bft)
18.04.2010 14:32 19,6 C 21,9 C 11,7 UV-I 6,0 C 39 % 30 % 100 % 1017,9 hPa 0,0 l/m 4,4 km/h (1 Bft) 2 min 13,7 km/h (3 Bft)
18.04.2010 14:34 19,7 C 21,9 C 11,7 UV-I 5,8 C 39 % 30 % 100 % 1017,9 hPa 0,0 l/m 4,8 km/h (1 Bft) 2 min 0,0 km/h (0 Bft)
18.04.2010 14:36 19,8 C 22,1 C 11,8 UV-I 5,6 C 39 % 31 % 100 % 1017,9 hPa 0,0 l/m 3,2 km/h (1 Bft) 2 min 4,4 km/h (1 Bft)
18.04.2010 14:38 19,8 C 22,0 C 11,8 UV-I 6,1 C 38 % 30 % 100 % 1017,9 hPa 0,0 l/m 4,0 km/h (1 Bft) 2 min 9,2 km/h (2 Bft)
18.04.2010 14:40 19,9 C 22,1 C 11,6 UV-I 6,0 C 38 % 30 % 100 % 1017,9 hPa 0,0 l/m 4,0 km/h (1 Bft) 2 min 0,0 km/h (0 Bft)
18.04.2010 14:42 20,0 C 22,3 C 11,6 UV-I 5,9 C 38 % 30 % 100 % 1017,9 hPa 0,0 l/m 3,6 km/h (1 Bft) 2 min 0,0 km/h (0 Bft)
18.04.2010 14:44 20,0 C 22,3 C 11,6 UV-I 6,0 C 38 % 29 % 100 % 1017,9 hPa 0,0 l/m 2,0 km/h (1 Bft) 2 min 0,0 km/h (0 Bft)
18.04.2010 14:46 20,1 C 22,4 C 12,3 UV-I 6,1 C 38 % 30 % 100 % 1017,9 hPa 0,0 l/m 2,0 km/h (1 Bft) 2 min 0,0 km/h (0 Bft)
18.04.2010 14:50 20,2 C 22,7 C 12,6 UV-I 6,3 C 38 % 30 % 100 % 1017,9 hPa 0,0 l/m 0,4 km/h (0 Bft) 2 min 0,0 km/h (0 Bft)
18.04.2010 14:54 20,2 C 22,8 C 12,6 UV-I 6,7 C 38 % 30 % 100 % 1016,5 hPa 0,0 l/m 1,2 km/h (1 Bft) 2 min 0,0 km/h (0 Bft)
18.04.2010 14:56 20,4 C 23,0 C 12,9 UV-I 6,5 C 37 % 28 % 100 % 1016,5 hPa 0,0 l/m 2,0 km/h (1 Bft) 2 min 7,2 km/h (2 Bft)
18.04.2010 14:58 20,4 C 23,1 C 12,9 UV-I 6,2 C 37 % 28 % 100 % 1016,5 hPa 0,0 l/m 2,8 km/h (1 Bft) 2 min 5,6 km/h (1 Bft)
18.04.2010 15:00 20,5 C 23,1 C 13,4 UV-I 6,2 C 37 % 28 % 100 % 1016,5 hPa 0,0 l/m 3,6 km/h (1 Bft) 2 min 4,8 km/h (1 Bft)
18.04.2010 15:02 20,6 C 23,1 C 13,4 UV-I 6,1 C 37 % 27 % 100 % 1016,5 hPa 0,0 l/m 5,2 km/h (1 Bft) 2 min 12,0 km/h (2 Bft)
18.04.2010 15:04 20,7 C 22,9 C 13,4 UV-I 6,0 C 37 % 28 % 100 % 1016,5 hPa 0,0 l/m 6,0 km/h (2 Bft) 2 min 8,0 km/h (2 Bft)
18.04.2010 15:06 20,7 C 22,9 C 13,2 UV-I 5,7 C 37 % 29 % 100 % 1016,5 hPa 0,0 l/m 5,6 km/h (1 Bft) 2 min 0,0 km/h (0 Bft)
18.04.2010 15:08 20,8 C 23,1 C 13,2 UV-I 5,5 C 36 % 28 % 100 % 1016,5 hPa 0,0 l/m 5,6 km/h (1 Bft) 2 min 9,2 km/h (2 Bft)
18.04.2010 15:10 20,8 C 23,2 C 13,4 UV-I 5,4 C 36 % 28 % 100 % 1016,5 hPa 0,0 l/m 5,2 km/h (1 Bft) 2 min 4,8 km/h (1 Bft)
18.04.2010 15:12 20,9 C 23,2 C 13,4 UV-I 5,4 C 36 % 28 % 100 % 1017,5 hPa 0,0 l/m 5,2 km/h (1 Bft) 2 min 0,0 km/h (0 Bft)
18.04.2010 15:14 21,0 C 23,2 C 13,4 UV-I 5,2 C 36 % 28 % 100 % 1017,5 hPa 0,0 l/m 3,2 km/h (1 Bft) 2 min 0,0 km/h (0 Bft)
18.04.2010 15:16 21,0 C 23,3 C 13,7 UV-I 5,2 C 36 % 28 % 100 % 1017,5 hPa 0,0 l/m 2,4 km/h (1 Bft) 2 min 0,0 km/h (0 Bft)
18.04.2010 15:18 21,1 C 23,5 C 13,7 UV-I 5,1 C 36 % 27 % 100 % 1017,5 hPa 0,0 l/m 2,0 km/h (1 Bft) 2 min 4,0 km/h (1 Bft)
18.04.2010 15:20 21,2 C 23,4 C 13,5 UV-I 5,5 C 36 % 28 % 100 % 1017,5 hPa 0,0 l/m 2,0 km/h (1 Bft) 2 min 5,2 km/h (1 Bft)
18.04.2010 15:22 21,2 C 23,5 C 13,5 UV-I 5,6 C 36 % 28 % 100 % 1017,5 hPa 0,0 l/m 1,2 km/h (1 Bft) 2 min 4,8 km/h (1 Bft)
18.04.2010 15:24 21,3 C 23,6 C 13,5 UV-I 5,6 C 36 % 28 % 100 % 1017,5 hPa 0,0 l/m 1,2 km/h (1 Bft) 2 min 5,2 km/h (1 Bft)
18.04.2010 15:26 21,4 C 23,6 C 13,4 UV-I 5,8 C 36 % 28 % 100 % 1017,5 hPa 0,0 l/m 2,0 km/h (1 Bft) 2 min 11,2 km/h (2 Bft)
18.04.2010 15:28 21,4 C 23,6 C 13,4 UV-I 5,7 C 35 % 28 % 100 % 1017,5 hPa 0,0 l/m 4,0 km/h (1 Bft) 2 min 7,6 km/h (2 Bft)
18.04.2010 15:30 21,4 C 23,7 C 13,5 UV-I 5,5 C 35 % 28 % 100 % 1017,5 hPa 0,0 l/m 4,4 km/h (1 Bft) 2 min 4,4 km/h (1 Bft)
18.04.2010 15:32 21,5 C 23,5 C 13,5 UV-I 5,5 C 35 % 27 % 100 % 1016,0 hPa 0,0 l/m 6,0 km/h (2 Bft) 2 min 16,5 km/h (3 Bft)
18.04.2010 15:34 21,6 C 23,5 C 13,5 UV-I 5,2 C 35 % 26 % 100 % 1016,0 hPa 0,0 l/m 7,6 km/h (2 Bft) 2 min 15,7 km/h (3 Bft)
18.04.2010 15:36 21,6 C 23,3 C 13,2 UV-I 5,0 C 35 % 27 % 100 % 1016,0 hPa 0,0 l/m 8,0 km/h (2 Bft) 2 min 9,2 km/h (2 Bft)
18.04.2010 15:38 21,7 C 23,3 C 13,2 UV-I 4,8 C 35 % 26 % 100 % 1016,0 hPa 0,0 l/m 8,0 km/h (2 Bft) 2 min 8,4 km/h (2 Bft)
18.04.2010 15:42 21,8 C 23,2 C 13,2 UV-I 4,6 C 35 % 26 % 100 % 1016,0 hPa 0,0 l/m 8,0 km/h (2 Bft) 2 min 8,8 km/h (2 Bft)
18.04.2010 15:44 21,8 C 23,3 C 13,2 UV-I 4,4 C 35 % 26 % 100 % 1016,0 hPa 0,0 l/m 7,2 km/h (2 Bft) 2 min 7,2 km/h (2 Bft)
18.04.2010 15:46 21,9 C 23,2 C 12,9 UV-I 4,4 C 34 % 26 % 100 % 1016,0 hPa 0,0 l/m 6,8 km/h (2 Bft) 2 min 6,4 km/h (2 Bft)
18.04.2010 15:48 22,0 C 23,1 C 12,9 UV-I 4,5 C 34 % 26 % 100 % 1016,0 hPa 0,0 l/m 6,4 km/h (2 Bft) 2 min 6,0 km/h (2 Bft)
18.04.2010 15:52 22,0 C 23,2 C 13,0 UV-I 4,6 C 34 % 26 % 100 % 1016,5 hPa 0,0 l/m 5,6 km/h (1 Bft) 2 min 6,4 km/h (2 Bft)
18.04.2010 15:54 22,1 C 23,2 C 13,0 UV-I 4,9 C 34 % 28 % 100 % 1016,5 hPa 0,0 l/m 4,8 km/h (1 Bft) 2 min 0,0 km/h (0 Bft)
18.04.2010 15:56 22,2 C 23,3 C 13,4 UV-I 4,9 C 34 % 26 % 100 % 1016,5 hPa 0,0 l/m 4,0 km/h (1 Bft) 2 min 8,0 km/h (2 Bft)
18.04.2010 15:58 22,2 C 23,5 C 13,4 UV-I 4,9 C 34 % 26 % 100 % 1016,5 hPa 0,0 l/m 3,2 km/h (1 Bft) 2 min 12,0 km/h (2 Bft)
18.04.2010 16:02 22,2 C 23,5 C 13,6 UV-I 5,0 C 34 % 27 % 100 % 1016,5 hPa 0,0 l/m 4,4 km/h (1 Bft) 2 min 4,0 km/h (1 Bft)
18.04.2010 16:04 22,4 C 23,4 C 13,6 UV-I 5,2 C 34 % 28 % 100 % 1016,5 hPa 0,0 l/m 3,2 km/h (1 Bft) 2 min 0,0 km/h (0 Bft)
18.04.2010 16:06 22,4 C 23,5 C 13,3 UV-I 5,3 C 34 % 28 % 100 % 1016,5 hPa 0,0 l/m 3,2 km/h (1 Bft) 2 min 6,0 km/h (2 Bft)
18.04.2010 16:08 22,4 C 23,5 C 13,3 UV-I 5,5 C 34 % 26 % 100 % 1016,5 hPa 0,0 l/m 4,0 km/h (1 Bft) 2 min 8,0 km/h (2 Bft)
18.04.2010 16:10 22,5 C 23,5 C 13,3 UV-I 5,5 C 34 % 27 % 100 % 1016,5 hPa 0,0 l/m 3,6 km/h (1 Bft) 2 min 0,0 km/h (0 Bft)
18.04.2010 16:12 22,5 C 23,5 C 13,3 UV-I 5,4 C 33 % 26 % 100 % 1017,1 hPa 0,0 l/m 4,0 km/h (1 Bft) 2 min 13,3 km/h (3 Bft)
18.04.2010 16:14 22,6 C 23,5 C 13,3 UV-I 5,3 C 33 % 26 % 100 % 1017,1 hPa 0,0 l/m 4,4 km/h (1 Bft) 2 min 4,8 km/h (1 Bft)
18.04.2010 16:16 22,6 C 23,5 C 13,1 UV-I 5,1 C 33 % 27 % 100 % 1017,1 hPa 0,0 l/m 4,8 km/h (1 Bft) 2 min 4,0 km/h (1 Bft)
18.04.2010 16:22 22,8 C 23,3 C 12,7 UV-I 5,0 C 33 % 26 % 100 % 1017,1 hPa 0,0 l/m 6,4 km/h (2 Bft) 2 min 14,5 km/h (3 Bft)
18.04.2010 16:24 22,8 C 23,2 C 12,7 UV-I 4,9 C 33 % 26 % 100 % 1017,1 hPa 0,0 l/m 6,4 km/h (2 Bft) 2 min 14,5 km/h (3 Bft)
18.04.2010 16:26 22,8 C 23,2 C 12,2 UV-I 4,8 C 33 % 26 % 100 % 1017,1 hPa 0,0 l/m 7,2 km/h (2 Bft) 2 min 5,6 km/h (1 Bft)
18.04.2010 16:28 22,9 C 23,2 C 12,2 UV-I 4,8 C 33 % 26 % 100 % 1017,1 hPa 0,0 l/m 6,4 km/h (2 Bft) 2 min 5,2 km/h (1 Bft)
18.04.2010 16:32 23,0 C 23,3 C 11,4 UV-I 4,6 C 33 % 25 % 100 % 1016,8 hPa 0,0 l/m 7,6 km/h (2 Bft) 2 min 22,5 km/h (4 Bft)
18.04.2010 16:34 23,0 C 23,2 C 11,4 UV-I 4,5 C 33 % 26 % 100 % 1016,8 hPa 0,0 l/m 6,8 km/h (2 Bft) 2 min 4,4 km/h (1 Bft)
18.04.2010 16:36 23,0 C 23,3 C 10,4 UV-I 4,5 C 33 % 26 % 100 % 1016,8 hPa 0,0 l/m 6,0 km/h (2 Bft) 2 min 6,4 km/h (2 Bft)
18.04.2010 16:38 23,0 C 23,2 C 10,4 UV-I 4,8 C 33 % 28 % 100 % 1016,8 hPa 0,0 l/m 5,6 km/h (1 Bft) 2 min 5,6 km/h (1 Bft)
18.04.2010 16:40 23,1 C 23,5 C 10,1 UV-I 4,8 C 33 % 26 % 100 % 1016,8 hPa 0,0 l/m 6,0 km/h (2 Bft) 2 min 8,8 km/h (2 Bft)
18.04.2010 16:44 23,1 C 23,3 C 10,1 UV-I 5,0 C 33 % 25 % 100 % 1016,8 hPa 0,0 l/m 4,8 km/h (1 Bft) 2 min 9,6 km/h (2 Bft)
18.04.2010 16:50 23,2 C 23,3 C 8,8 UV-I 4,8 C 33 % 25 % 100 % 1016,8 hPa 0,0 l/m 5,6 km/h (1 Bft) 2 min 6,4 km/h (2 Bft)
18.04.2010 16:52 23,2 C 23,3 C 8,8 UV-I 4,9 C 33 % 25 % 100 % 1016,1 hPa 0,0 l/m 5,2 km/h (1 Bft) 2 min 15,7 km/h (3 Bft)
18.04.2010 16:54 23,2 C 23,3 C 8,8 UV-I 4,8 C 33 % 25 % 100 % 1016,1 hPa 0,0 l/m 6,4 km/h (2 Bft) 2 min 10,8 km/h (2 Bft)
18.04.2010 16:56 23,2 C 23,3 C 8,0 UV-I 4,5 C 33 % 25 % 100 % 1016,1 hPa 0,0 l/m 6,4 km/h (2 Bft) 2 min 9,6 km/h (2 Bft)
18.04.2010 16:58 23,3 C 23,2 C 8,0 UV-I 4,4 C 32 % 26 % 100 % 1016,1 hPa 0,0 l/m 7,2 km/h (2 Bft) 2 min 10,0 km/h (2 Bft)
18.04.2010 17:02 23,2 C 23,3 C 6,9 UV-I 4,5 C 32 % 25 % 100 % 1016,1 hPa 0,0 l/m 7,6 km/h (2 Bft) 2 min 4,0 km/h (1 Bft)
18.04.2010 17:04 23,2 C 23,2 C 6,9 UV-I 4,6 C 32 % 26 % 100 % 1016,1 hPa 0,0 l/m 6,4 km/h (2 Bft) 2 min 7,6 km/h (2 Bft)
18.04.2010 17:06 23,2 C 23,3 C 6,7 UV-I 4,6 C 33 % 26 % 100 % 1016,1 hPa 0,0 l/m 4,8 km/h (1 Bft) 2 min 0,0 km/h (0 Bft)
18.04.2010 17:08 23,4 C 23,3 C 6,7 UV-I 4,5 C 32 % 26 % 100 % 1016,1 hPa 0,0 l/m 4,4 km/h (1 Bft) 2 min 10,8 km/h (2 Bft)
18.04.2010 17:12 23,4 C 23,2 C 5,7 UV-I 4,4 C 33 % 25 % 100 % 1015,8 hPa 0,0 l/m 5,6 km/h (1 Bft) 2 min 9,2 km/h (2 Bft)
18.04.2010 17:14 23,4 C 23,1 C 5,7 UV-I 4,4 C 32 % 25 % 100 % 1015,8 hPa 0,0 l/m 6,4 km/h (2 Bft) 2 min 11,2 km/h (2 Bft)
18.04.2010 17:16 23,4 C 23,1 C 4,2 UV-I 4,4 C 32 % 25 % 100 % 1015,8 hPa 0,0 l/m 6,8 km/h (2 Bft) 2 min 5,2 km/h (1 Bft)
18.04.2010 17:18 23,4 C 23,1 C 4,2 UV-I 4,4 C 32 % 25 % 100 % 1015,8 hPa 0,0 l/m 6,8 km/h (2 Bft) 2 min 9,2 km/h (2 Bft)
18.04.2010 17:20 23,4 C 23,1 C 3,1 UV-I 4,3 C 32 % 26 % 100 % 1015,8 hPa 0,0 l/m 7,2 km/h (2 Bft) 2 min 10,4 km/h (2 Bft)
18.04.2010 17:24 23,4 C 23,0 C 3,1 UV-I 4,2 C 32 % 25 % 100 % 1015,8 hPa 0,0 l/m 7,2 km/h (2 Bft) 2 min 16,9 km/h (3 Bft)
18.04.2010 17:26 23,2 C 23,0 C 3,2 UV-I 4,1 C 33 % 25 % 100 % 1015,8 hPa 0,0 l/m 6,4 km/h (2 Bft) 2 min 8,0 km/h (2 Bft)
18.04.2010 17:29 23,2 C 22,9 C 2,6 UV-I 4,0 C 33 % 25 % 100 % 1015,8 hPa 0,0 l/m 7,6 km/h (2 Bft) 2 min 6,4 km/h (2 Bft)
18.04.2010 17:31 23,2 C 22,7 C 2,6 UV-I 4,0 C 33 % 25 % 100 % 1016,2 hPa 0,0 l/m 7,2 km/h (2 Bft) 2 min 7,2 km/h (2 Bft)
18.04.2010 17:34 23,1 C 22,7 C 2,6 UV-I 4,0 C 33 % 25 % 100 % 1016,2 hPa 0,0 l/m 5,2 km/h (1 Bft) 2 min 0,0 km/h (0 Bft)
18.04.2010 17:36 23,0 C 22,7 C 2,6 UV-I 4,1 C 33 % 25 % 100 % 1016,2 hPa 0,0 l/m 5,2 km/h (1 Bft) 2 min 5,2 km/h (1 Bft)
18.04.2010 17:38 23,0 C 22,8 C 2,6 UV-I 4,2 C 33 % 25 % 100 % 1016,2 hPa 0,0 l/m 4,0 km/h (1 Bft) 2 min 0,0 km/h (0 Bft)
18.04.2010 17:40 22,9 C 22,8 C 2,4 UV-I 4,5 C 33 % 26 % 100 % 1016,2 hPa 0,0 l/m 2,8 km/h (1 Bft) 2 min 9,2 km/h (2 Bft)
18.04.2010 17:42 22,9 C 22,9 C 2,4 UV-I 4,5 C 33 % 25 % 100 % 1016,2 hPa 0,0 l/m 2,8 km/h (1 Bft) 2 min 5,2 km/h (1 Bft)
18.04.2010 17:44 22,8 C 22,9 C 2,4 UV-I 4,4 C 33 % 25 % 100 % 1016,2 hPa 0,0 l/m 4,0 km/h (1 Bft) 2 min 11,2 km/h (2 Bft)
18.04.2010 17:46 22,8 C 22,8 C 2,4 UV-I 4,2 C 33 % 25 % 100 % 1016,2 hPa 0,0 l/m 4,8 km/h (1 Bft) 2 min 8,0 km/h (2 Bft)
18.04.2010 17:48 22,8 C 22,8 C 2,4 UV-I 3,8 C 33 % 26 % 100 % 1016,2 hPa 0,0 l/m 5,2 km/h (1 Bft) 2 min 8,0 km/h (2 Bft)
18.04.2010 17:50 22,7 C 22,7 C 2,0 UV-I 3,7 C 33 % 26 % 100 % 1016,2 hPa 0,0 l/m 6,0 km/h (2 Bft) 2 min 4,0 km/h (1 Bft)
18.04.2010 17:52 22,7 C 22,7 C 2,0 UV-I 3,5 C 33 % 25 % 100 % 1014,0 hPa 0,0 l/m 6,0 km/h (2 Bft) 2 min 7,2 km/h (2 Bft)
18.04.2010 17:54 22,6 C 22,7 C 2,0 UV-I 3,2 C 33 % 25 % 91 % 1014,0 hPa 0,0 l/m 5,6 km/h (1 Bft) 2 min 8,8 km/h (2 Bft)
18.04.2010 17:56 22,6 C 22,7 C 1,6 UV-I 2,9 C 33 % 25 % 83 % 1014,0 hPa 0,0 l/m 5,2 km/h (1 Bft) 2 min 11,2 km/h (2 Bft)
18.04.2010 17:58 22,5 C 22,5 C 1,6 UV-I 2,9 C 33 % 25 % 83 % 1014,0 hPa 0,0 l/m 5,2 km/h (1 Bft) 2 min 0,0 km/h (0 Bft)
18.04.2010 18:00 22,4 C 22,5 C 1,8 UV-I 2,7 C 33 % 25 % 77 % 1014,0 hPa 0,0 l/m 4,8 km/h (1 Bft) 0 min 0,0 km/h (0 Bft)
18.04.2010 18:02 22,4 C 22,4 C 1,8 UV-I 2,6 C 34 % 25 % 74 % 1014,0 hPa 0,0 l/m 4,4 km/h (1 Bft) 0 min 7,2 km/h (2 Bft)
18.04.2010 18:04 22,4 C 22,5 C 1,8 UV-I 2,4 C 34 % 26 % 69 % 1014,0 hPa 0,0 l/m 3,6 km/h (1 Bft) 0 min 4,4 km/h (1 Bft)
18.04.2010 18:06 22,2 C 22,4 C 1,8 UV-I 2,5 C 34 % 26 % 71 % 1014,0 hPa 0,0 l/m 2,8 km/h (1 Bft) 0 min 8,4 km/h (2 Bft)
18.04.2010 18:08 22,3 C 22,3 C 1,8 UV-I 2,6 C 34 % 26 % 74 % 1014,0 hPa 0,0 l/m 3,6 km/h (1 Bft) 0 min 11,2 km/h (2 Bft)
18.04.2010 18:10 22,2 C 22,1 C 1,7 UV-I 2,6 C 34 % 26 % 74 % 1014,0 hPa 0,0 l/m 4,4 km/h (1 Bft) 0 min 11,6 km/h (2 Bft)
18.04.2010 18:12 22,2 C 22,0 C 1,7 UV-I 2,3 C 34 % 26 % 66 % 1013,4 hPa 0,0 l/m 4,8 km/h (1 Bft) 0 min 6,4 km/h (2 Bft)
18.04.2010 18:14 22,1 C 21,9 C 1,7 UV-I 2,2 C 34 % 26 % 63 % 1013,4 hPa 0,0 l/m 5,2 km/h (1 Bft) 0 min 0,0 km/h (0 Bft)
18.04.2010 18:16 22,1 C 21,8 C 1,5 UV-I 2,2 C 34 % 26 % 63 % 1013,4 hPa 0,0 l/m 5,6 km/h (1 Bft) 0 min 6,0 km/h (2 Bft)
18.04.2010 18:18 22,0 C 21,7 C 1,5 UV-I 2,1 C 34 % 26 % 60 % 1013,4 hPa 0,0 l/m 5,2 km/h (1 Bft) 0 min 5,2 km/h (1 Bft)
18.04.2010 18:20 22,0 C 21,7 C 1,4 UV-I 1,9 C 34 % 27 % 54 % 1013,4 hPa 0,0 l/m 5,2 km/h (1 Bft) 0 min 9,2 km/h (2 Bft)
18.04.2010 18:22 22,0 C 21,6 C 1,4 UV-I 1,6 C 34 % 27 % 46 % 1013,4 hPa 0,0 l/m 4,0 km/h (1 Bft) 0 min 0,0 km/h (0 Bft)
18.04.2010 18:24 22,0 C 21,7 C 1,4 UV-I 1,4 C 34 % 27 % 40 % 1013,4 hPa 0,0 l/m 4,4 km/h (1 Bft) 0 min 13,3 km/h (3 Bft)
18.04.2010 18:26 21,9 C 21,5 C 1,1 UV-I 1,3 C 35 % 26 % 37 % 1013,4 hPa 0,0 l/m 4,8 km/h (1 Bft) 0 min 6,8 km/h (2 Bft)
18.04.2010 18:28 21,9 C 21,3 C 1,1 UV-I 1,1 C 35 % 26 % 31 % 1013,4 hPa 0,0 l/m 4,4 km/h (1 Bft) 0 min 0,0 km/h (0 Bft)
18.04.2010 18:30 21,8 C 21,3 C 0,9 UV-I 0,9 C 35 % 27 % 26 % 1013,4 hPa 0,0 l/m 4,0 km/h (1 Bft) 0 min 0,0 km/h (0 Bft)
18.04.2010 18:32 21,8 C 21,2 C 0,9 UV-I 0,8 C 35 % 27 % 23 % 1013,0 hPa 0,0 l/m 3,6 km/h (1 Bft) 0 min 0,0 km/h (0 Bft)
18.04.2010 18:34 21,8 C 21,2 C 0,9 UV-I 0,5 C 35 % 27 % 14 % 1013,0 hPa 0,0 l/m 4,4 km/h (1 Bft) 0 min 6,0 km/h (2 Bft)
18.04.2010 18:36 21,8 C 21,2 C 0,9 UV-I 0,4 C 35 % 27 % 11 % 1013,0 hPa 0,0 l/m 3,6 km/h (1 Bft) 0 min 5,6 km/h (1 Bft)
18.04.2010 18:38 21,8 C 21,1 C 0,9 UV-I 0,3 C 35 % 28 % 9 % 1013,0 hPa 0,0 l/m 2,4 km/h (1 Bft) 0 min 0,0 km/h (0 Bft)
18.04.2010 18:40 21,8 C 21,1 C 1,0 UV-I 0,1 C 35 % 28 % 3 % 1013,0 hPa 0,0 l/m 2,8 km/h (1 Bft) 0 min 6,0 km/h (2 Bft)
18.04.2010 18:42 21,8 C 21,1 C 1,0 UV-I 0,0 C 35 % 27 % 0 % 1013,0 hPa 0,0 l/m 3,2 km/h (1 Bft) 0 min 4,8 km/h (1 Bft)
18.04.2010 18:44 21,8 C 21,0 C 1,0 UV-I 0,0 C 35 % 28 % 0 % 1013,0 hPa 0,0 l/m 2,8 km/h (1 Bft) 0 min 0,0 km/h (0 Bft)
18.04.2010 18:46 21,7 C 20,9 C 1,0 UV-I 0,0 C 35 % 29 % 0 % 1013,0 hPa 0,0 l/m 2,4 km/h (1 Bft) 0 min 0,0 km/h (0 Bft)
18.04.2010 18:48 21,7 C 20,8 C 1,0 UV-I 0,0 C 35 % 29 % 0 % 1013,0 hPa 0,0 l/m 2,0 km/h (1 Bft) 0 min 4,4 km/h (1 Bft)
18.04.2010 18:50 21,7 C 20,8 C 1,0 UV-I 0,0 C 35 % 29 % 0 % 1013,0 hPa 0,0 l/m 3,2 km/h (1 Bft) 0 min 4,8 km/h (1 Bft)
18.04.2010 18:52 21,7 C 20,7 C 1,0 UV-I 0,0 C 35 % 29 % 0 % 1013,2 hPa 0,0 l/m 3,2 km/h (1 Bft) 0 min 6,8 km/h (2 Bft)
18.04.2010 18:54 21,6 C 20,6 C 1,0 UV-I 0,0 C 35 % 29 % 0 % 1013,2 hPa 0,0 l/m 3,6 km/h (1 Bft) 0 min 6,4 km/h (2 Bft)
18.04.2010 18:56 21,6 C 20,7 C 0,9 UV-I 0,0 C 35 % 29 % 0 % 1013,2 hPa 0,0 l/m 4,8 km/h (1 Bft) 0 min 6,0 km/h (2 Bft)
18.04.2010 18:58 21,6 C 20,5 C 0,9 UV-I 0,0 C 35 % 29 % 0 % 1013,2 hPa 0,0 l/m 5,6 km/h (1 Bft) 0 min 11,2 km/h (2 Bft)
18.04.2010 19:00 21,6 C 20,4 C 0,7 UV-I 0,0 C 35 % 29 % 0 % 1013,2 hPa 0,0 l/m 6,0 km/h (2 Bft) 0 min 8,0 km/h (2 Bft)
18.04.2010 19:02 21,6 C 20,4 C 0,7 UV-I 0,0 C 35 % 29 % 0 % 1013,2 hPa 0,0 l/m 6,4 km/h (2 Bft) 0 min 7,6 km/h (2 Bft)
18.04.2010 19:04 21,6 C 20,3 C 0,7 UV-I 0,0 C 35 % 29 % 0 % 1013,2 hPa 0,0 l/m 6,8 km/h (2 Bft) 0 min 9,2 km/h (2 Bft)
18.04.2010 19:08 21,5 C 20,2 C 0,6 UV-I 0,0 C 35 % 29 % 0 % 1013,2 hPa 0,0 l/m 6,8 km/h (2 Bft) 0 min 11,2 km/h (2 Bft)
18.04.2010 19:10 21,5 C 20,2 C 0,3 UV-I 0,0 C 35 % 30 % 0 % 1013,2 hPa 0,0 l/m 7,2 km/h (2 Bft) 0 min 8,8 km/h (2 Bft)
18.04.2010 19:12 21,4 C 20,1 C 0,3 UV-I 0,0 C 35 % 30 % 0 % 1013,3 hPa 0,0 l/m 6,4 km/h (2 Bft) 0 min 0,0 km/h (0 Bft)
18.04.2010 19:14 21,4 C 20,0 C 0,3 UV-I 0,0 C 35 % 30 % 0 % 1013,3 hPa 0,0 l/m 5,6 km/h (1 Bft) 0 min 4,8 km/h (1 Bft)
18.04.2010 19:16 21,4 C 20,0 C 0,3 UV-I 0,0 C 35 % 30 % 0 % 1013,3 hPa 0,0 l/m 5,2 km/h (1 Bft) 0 min 8,0 km/h (2 Bft)
18.04.2010 19:18 21,4 C 19,9 C 0,3 UV-I 0,0 C 35 % 30 % 0 % 1013,3 hPa 0,0 l/m 5,2 km/h (1 Bft) 0 min 8,8 km/h (2 Bft)
18.04.2010 19:20 21,4 C 19,9 C 0,2 UV-I 0,0 C 35 % 31 % 0 % 1013,3 hPa 0,0 l/m 4,8 km/h (1 Bft) 0 min 9,6 km/h (2 Bft)
18.04.2010 19:22 21,2 C 19,8 C 0,2 UV-I 0,0 C 35 % 31 % 0 % 1013,3 hPa 0,0 l/m 4,8 km/h (1 Bft) 0 min 9,6 km/h (2 Bft)
18.04.2010 19:24 21,3 C 19,8 C 0,2 UV-I 0,0 C 35 % 31 % 0 % 1013,3 hPa 0,0 l/m 6,0 km/h (2 Bft) 0 min 8,0 km/h (2 Bft)
18.04.2010 19:26 21,3 C 19,7 C 0,2 UV-I 0,0 C 35 % 31 % 0 % 1013,3 hPa 0,0 l/m 6,4 km/h (2 Bft) 0 min 4,0 km/h (1 Bft)
18.04.2010 19:28 21,2 C 19,7 C 0,2 UV-I 0,0 C 35 % 32 % 0 % 1013,3 hPa 0,0 l/m 5,6 km/h (1 Bft) 0 min 0,0 km/h (0 Bft)
18.04.2010 19:30 21,2 C 19,7 C 0,2 UV-I 0,0 C 35 % 32 % 0 % 1013,3 hPa 0,0 l/m 5,2 km/h (1 Bft) 0 min 5,2 km/h (1 Bft)
18.04.2010 19:32 21,2 C 19,5 C 0,2 UV-I 0,0 C 35 % 32 % 0 % 1012,9 hPa 0,0 l/m 4,4 km/h (1 Bft) 0 min 0,0 km/h (0 Bft)
18.04.2010 19:34 21,2 C 19,4 C 0,2 UV-I 0,0 C 35 % 32 % 0 % 1012,9 hPa 0,0 l/m 3,6 km/h (1 Bft) 0 min 4,8 km/h (1 Bft)
18.04.2010 19:36 21,1 C 19,5 C 0,3 UV-I 0,0 C 35 % 32 % 0 % 1012,9 hPa 0,0 l/m 3,2 km/h (1 Bft) 0 min 6,0 km/h (2 Bft)
18.04.2010 19:38 21,1 C 19,5 C 0,3 UV-I 0,0 C 35 % 32 % 0 % 1012,9 hPa 0,0 l/m 3,6 km/h (1 Bft) 0 min 6,0 km/h (2 Bft)
18.04.2010 19:40 21,1 C 19,4 C 0,1 UV-I 0,0 C 36 % 33 % 0 % 1012,9 hPa 0,0 l/m 4,0 km/h (1 Bft) 0 min 8,8 km/h (2 Bft)
18.04.2010 19:42 21,1 C 19,3 C 0,1 UV-I 0,0 C 36 % 32 % 0 % 1012,9 hPa 0,0 l/m 4,4 km/h (1 Bft) 0 min 5,6 km/h (1 Bft)
18.04.2010 19:44 21,0 C 19,1 C 0,1 UV-I 0,0 C 36 % 33 % 0 % 1012,9 hPa 0,0 l/m 6,0 km/h (2 Bft) 0 min 13,3 km/h (3 Bft)
18.04.2010 19:46 21,0 C 19,1 C 0,1 UV-I 0,0 C 36 % 33 % 0 % 1012,9 hPa 0,0 l/m 7,6 km/h (2 Bft) 0 min 11,2 km/h (2 Bft)
18.04.2010 19:48 21,0 C 19,1 C 0,1 UV-I 0,0 C 36 % 33 % 0 % 1012,9 hPa 0,0 l/m 8,0 km/h (2 Bft) 0 min 8,8 km/h (2 Bft)
18.04.2010 19:50 21,0 C 18,9 C 0,2 UV-I 0,0 C 36 % 34 % 0 % 1012,9 hPa 0,0 l/m 8,8 km/h (2 Bft) 0 min 10,4 km/h (2 Bft)
18.04.2010 19:52 20,9 C 18,9 C 0,2 UV-I 0,0 C 36 % 34 % 0 % 1012,9 hPa 0,0 l/m 8,4 km/h (2 Bft) 0 min 9,2 km/h (2 Bft)
18.04.2010 19:54 20,9 C 18,8 C 0,2 UV-I 0,0 C 36 % 34 % 0 % 1012,9 hPa 0,0 l/m 8,4 km/h (2 Bft) 0 min 8,4 km/h (2 Bft)
18.04.2010 19:56 20,9 C 18,6 C 0,0 UV-I 0,0 C 36 % 35 % 0 % 1012,9 hPa 0,0 l/m 7,6 km/h (2 Bft) 0 min 7,6 km/h (2 Bft)
18.04.2010 19:58 20,9 C 18,6 C 0,0 UV-I 0,0 C 36 % 35 % 0 % 1012,9 hPa 0,0 l/m 7,2 km/h (2 Bft) 0 min 11,2 km/h (2 Bft)
18.04.2010 20:00 20,8 C 18,5 C 0,0 UV-I 0,0 C 36 % 35 % 0 % 1012,9 hPa 0,0 l/m 7,2 km/h (2 Bft) 0 min 10,8 km/h (2 Bft)
18.04.2010 20:02 20,8 C 18,5 C 0,0 UV-I 0,0 C 36 % 35 % 0 % 1012,9 hPa 0,0 l/m 7,2 km/h (2 Bft) 0 min 5,6 km/h (1 Bft)
18.04.2010 20:04 20,8 C 18,3 C 0,0 UV-I 0,0 C 36 % 35 % 0 % 1012,9 hPa 0,0 l/m 6,8 km/h (2 Bft) 0 min 8,4 km/h (2 Bft)
18.04.2010 20:06 20,8 C 18,3 C 0,0 UV-I 0,0 C 36 % 36 % 0 % 1012,9 hPa 0,0 l/m 6,8 km/h (2 Bft) 0 min 8,0 km/h (2 Bft)
18.04.2010 20:08 20,8 C 18,2 C 0,0 UV-I 0,0 C 36 % 36 % 0 % 1012,9 hPa 0,0 l/m 6,4 km/h (2 Bft) 0 min 6,0 km/h (2 Bft)
18.04.2010 20:10 20,8 C 18,1 C 0,0 UV-I 0,0 C 36 % 36 % 0 % 1012,9 hPa 0,0 l/m 6,0 km/h (2 Bft) 0 min 7,6 km/h (2 Bft)
18.04.2010 20:12 20,7 C 18,1 C 0,0 UV-I 0,0 C 36 % 36 % 0 % 1012,4 hPa 0,0 l/m 6,0 km/h (2 Bft) 0 min 8,0 km/h (2 Bft)
18.04.2010 20:14 20,7 C 17,9 C 0,0 UV-I 0,0 C 36 % 37 % 0 % 1012,4 hPa 0,0 l/m 5,6 km/h (1 Bft) 0 min 5,2 km/h (1 Bft)
18.04.2010 20:18 20,6 C 17,8 C 0,0 UV-I 0,0 C 36 % 37 % 0 % 1012,4 hPa 0,0 l/m 4,8 km/h (1 Bft) 0 min 6,0 km/h (2 Bft)
18.04.2010 20:20 20,6 C 17,7 C 0,0 UV-I 0,0 C 36 % 37 % 0 % 1012,4 hPa 0,0 l/m 4,8 km/h (1 Bft) 0 min 4,4 km/h (1 Bft)
18.04.2010 20:22 20,6 C 17,6 C 0,0 UV-I 0,0 C 36 % 38 % 0 % 1012,4 hPa 0,0 l/m 4,0 km/h (1 Bft) 0 min 4,8 km/h (1 Bft)
18.04.2010 20:24 20,6 C 17,6 C 0,0 UV-I 0,0 C 36 % 38 % 0 % 1012,4 hPa 0,0 l/m 3,6 km/h (1 Bft) 0 min 4,4 km/h (1 Bft)
18.04.2010 20:26 20,5 C 17,6 C 0,0 UV-I 0,0 C 36 % 38 % 0 % 1012,4 hPa 0,0 l/m 3,2 km/h (1 Bft) 0 min 4,4 km/h (1 Bft)
18.04.2010 20:28 20,5 C 17,4 C 0,0 UV-I 0,0 C 36 % 38 % 0 % 1012,4 hPa 0,0 l/m 2,4 km/h (1 Bft) 0 min 4,4 km/h (1 Bft)
18.04.2010 20:30 20,4 C 17,3 C 0,0 UV-I 0,0 C 36 % 38 % 0 % 1012,4 hPa 0,0 l/m 1,6 km/h (1 Bft) 0 min 0,0 km/h (0 Bft)
18.04.2010 20:32 20,4 C 17,3 C 0,0 UV-I 0,0 C 36 % 38 % 0 % 1012,6 hPa 0,0 l/m 1,2 km/h (1 Bft) 0 min 0,0 km/h (0 Bft)
18.04.2010 20:34 20,4 C 17,3 C 0,0 UV-I 0,0 C 36 % 39 % 0 % 1012,6 hPa 0,0 l/m 1,2 km/h (1 Bft) 0 min 0,0 km/h (0 Bft)
18.04.2010 20:36 20,4 C 17,2 C 0,0 UV-I 0,0 C 36 % 39 % 0 % 1012,6 hPa 0,0 l/m 0,8 km/h (0 Bft) 0 min 0,0 km/h (0 Bft)
18.04.2010 20:40 20,2 C 17,1 C 0,0 UV-I 0,0 C 37 % 40 % 0 % 1012,6 hPa 0,0 l/m 0,4 km/h (0 Bft) 0 min 0,0 km/h (0 Bft)
18.04.2010 20:42 20,3 C 16,9 C 0,0 UV-I 0,0 C 37 % 41 % 0 % 1012,6 hPa 0,0 l/m 0,4 km/h (0 Bft) 0 min 0,0 km/h (0 Bft)
18.04.2010 20:44 20,3 C 16,8 C 0,0 UV-I 0,0 C 37 % 41 % 0 % 1012,6 hPa 0,0 l/m 0,0 km/h (0 Bft) 0 min 0,0 km/h (0 Bft)
18.04.2010 20:46 20,2 C 16,8 C 0,0 UV-I 0,0 C 37 % 41 % 0 % 1012,6 hPa 0,0 l/m 0,0 km/h (0 Bft) 0 min 5,2 km/h (1 Bft)
18.04.2010 20:48 20,2 C 16,7 C 0,0 UV-I 0,0 C 37 % 41 % 0 % 1012,6 hPa 0,0 l/m 0,4 km/h (0 Bft) 0 min 8,4 km/h (2 Bft)
18.04.2010 20:50 20,2 C 16,7 C 0,0 UV-I 0,0 C 37 % 41 % 0 % 1012,6 hPa 0,0 l/m 1,6 km/h (1 Bft) 0 min 8,0 km/h (2 Bft)
18.04.2010 20:52 20,2 C 16,5 C 0,0 UV-I 0,0 C 37 % 41 % 0 % 1012,6 hPa 0,0 l/m 2,8 km/h (1 Bft) 0 min 7,2 km/h (2 Bft)
18.04.2010 20:54 20,1 C 16,5 C 0,0 UV-I 0,0 C 37 % 41 % 0 % 1012,6 hPa 0,0 l/m 3,6 km/h (1 Bft) 0 min 7,2 km/h (2 Bft)
18.04.2010 20:56 20,1 C 16,4 C 0,0 UV-I 0,0 C 37 % 41 % 0 % 1012,6 hPa 0,0 l/m 4,4 km/h (1 Bft) 0 min 8,0 km/h (2 Bft)
18.04.2010 20:58 20,1 C 16,5 C 0,0 UV-I 0,0 C 37 % 41 % 0 % 1012,6 hPa 0,0 l/m 4,8 km/h (1 Bft) 0 min 0,0 km/h (0 Bft)
18.04.2010 21:00 20,0 C 16,4 C 0,0 UV-I 0,0 C 37 % 41 % 0 % 1012,6 hPa 0,0 l/m 4,4 km/h (1 Bft) 0 min 9,6 km/h (2 Bft)
18.04.2010 21:02 20,0 C 16,3 C 0,0 UV-I 0,0 C 37 % 42 % 0 % 1012,6 hPa 0,0 l/m 4,8 km/h (1 Bft) 0 min 7,6 km/h (2 Bft)
18.04.2010 21:04 20,0 C 16,3 C 0,0 UV-I 0,0 C 37 % 42 % 0 % 1012,6 hPa 0,0 l/m 4,8 km/h (1 Bft) 0 min 7,2 km/h (2 Bft)
18.04.2010 21:06 20,0 C 16,2 C 0,0 UV-I 0,0 C 37 % 42 % 0 % 1012,6 hPa 0,0 l/m 4,8 km/h (1 Bft) 0 min 6,8 km/h (2 Bft)
18.04.2010 21:08 20,0 C 16,1 C 0,0 UV-I 0,0 C 37 % 43 % 0 % 1012,6 hPa 0,0 l/m 5,6 km/h (1 Bft) 0 min 6,4 km/h (2 Bft)
18.04.2010 21:10 19,9 C 16,0 C 0,0 UV-I 0,0 C 37 % 43 % 0 % 1012,6 hPa 0,0 l/m 5,6 km/h (1 Bft) 0 min 7,2 km/h (2 Bft)
18.04.2010 21:12 19,9 C 16,0 C 0,0 UV-I 0,0 C 37 % 44 % 0 % 1013,0 hPa 0,0 l/m 5,6 km/h (1 Bft) 0 min 6,4 km/h (2 Bft)
18.04.2010 21:14 19,9 C 15,9 C 0,0 UV-I 0,0 C 38 % 44 % 0 % 1013,0 hPa 0,0 l/m 4,8 km/h (1 Bft) 0 min 0,0 km/h (0 Bft)
18.04.2010 21:16 19,9 C 15,8 C 0,0 UV-I 0,0 C 38 % 44 % 0 % 1013,0 hPa 0,0 l/m 4,0 km/h (1 Bft) 0 min 0,0 km/h (0 Bft)
18.04.2010 21:18 19,8 C 15,8 C 0,0 UV-I 0,0 C 38 % 44 % 0 % 1013,0 hPa 0,0 l/m 3,2 km/h (1 Bft) 0 min 6,0 km/h (2 Bft)
18.04.2010 21:20 19,8 C 15,7 C 0,0 UV-I 0,0 C 38 % 45 % 0 % 1013,0 hPa 0,0 l/m 2,4 km/h (1 Bft) 0 min 4,0 km/h (1 Bft)
18.04.2010 21:22 19,8 C 15,6 C 0,0 UV-I 0,0 C 38 % 45 % 0 % 1013,0 hPa 0,0 l/m 2,4 km/h (1 Bft) 0 min 7,6 km/h (2 Bft)
18.04.2010 21:24 19,8 C 15,6 C 0,0 UV-I 0,0 C 38 % 45 % 0 % 1013,0 hPa 0,0 l/m 2,0 km/h (1 Bft) 0 min 0,0 km/h (0 Bft)
18.04.2010 21:26 19,8 C 15,5 C 0,0 UV-I 0,0 C 38 % 46 % 0 % 1013,0 hPa 0,0 l/m 2,0 km/h (1 Bft) 0 min 0,0 km/h (0 Bft)
18.04.2010 21:28 19,7 C 15,5 C 0,0 UV-I 0,0 C 38 % 46 % 0 % 1013,0 hPa 0,0 l/m 2,0 km/h (1 Bft) 0 min 0,0 km/h (0 Bft)
18.04.2010 21:30 19,7 C 15,3 C 0,0 UV-I 0,0 C 38 % 46 % 0 % 1013,0 hPa 0,0 l/m 2,0 km/h (1 Bft) 0 min 4,4 km/h (1 Bft)
18.04.2010 21:32 19,7 C 15,3 C 0,0 UV-I 0,0 C 38 % 47 % 0 % 1013,0 hPa 0,0 l/m 2,4 km/h (1 Bft) 0 min 6,8 km/h (2 Bft)
18.04.2010 21:34 19,7 C 15,2 C 0,0 UV-I 0,0 C 38 % 47 % 0 % 1013,0 hPa 0,0 l/m 2,0 km/h (1 Bft) 0 min 4,4 km/h (1 Bft)
18.04.2010 21:36 19,6 C 15,2 C 0,0 UV-I 0,0 C 38 % 47 % 0 % 1013,0 hPa 0,0 l/m 2,0 km/h (1 Bft) 0 min 4,4 km/h (1 Bft)
18.04.2010 21:38 19,6 C 15,1 C 0,0 UV-I 0,0 C 38 % 47 % 0 % 1013,0 hPa 0,0 l/m 2,0 km/h (1 Bft) 0 min 4,0 km/h (1 Bft)
18.04.2010 21:40 19,6 C 15,1 C 0,0 UV-I 0,0 C 38 % 48 % 0 % 1013,0 hPa 0,0 l/m 1,2 km/h (1 Bft) 0 min 0,0 km/h (0 Bft)
18.04.2010 21:42 19,6 C 15,0 C 0,0 UV-I 0,0 C 38 % 48 % 0 % 1013,0 hPa 0,0 l/m 1,6 km/h (1 Bft) 0 min 8,0 km/h (2 Bft)
18.04.2010 21:44 19,6 C 14,9 C 0,0 UV-I 0,0 C 38 % 48 % 0 % 1013,0 hPa 0,0 l/m 0,8 km/h (0 Bft) 0 min 0,0 km/h (0 Bft)
18.04.2010 21:46 19,6 C 14,8 C 0,0 UV-I 0,0 C 38 % 48 % 0 % 1013,0 hPa 0,0 l/m 0,8 km/h (0 Bft) 0 min 0,0 km/h (0 Bft)
18.04.2010 21:48 19,6 C 14,9 C 0,0 UV-I 0,0 C 38 % 48 % 0 % 1013,0 hPa 0,0 l/m 0,4 km/h (0 Bft) 0 min 0,0 km/h (0 Bft)
18.04.2010 21:50 19,6 C 14,7 C 0,0 UV-I 0,0 C 38 % 49 % 0 % 1013,0 hPa 0,0 l/m 0,4 km/h (0 Bft) 0 min 0,0 km/h (0 Bft)
18.04.2010 21:52 19,5 C 14,7 C 0,0 UV-I 0,0 C 38 % 49 % 0 % 1013,1 hPa 0,0 l/m 0,4 km/h (0 Bft) 0 min 0,0 km/h (0 Bft)
18.04.2010 21:54 19,5 C 14,7 C 0,0 UV-I 0,0 C 39 % 50 % 0 % 1013,1 hPa 0,0 l/m 0,0 km/h (0 Bft) 0 min 0,0 km/h (0 Bft)
18.04.2010 21:56 19,5 C 14,5 C 0,0 UV-I 0,0 C 39 % 50 % 0 % 1013,1 hPa 0,0 l/m 0,4 km/h (0 Bft) 0 min 6,0 km/h (2 Bft)
18.04.2010 21:58 19,5 C 14,4 C 0,0 UV-I 0,0 C 39 % 50 % 0 % 1013,1 hPa 0,0 l/m 0,4 km/h (0 Bft) 0 min 0,0 km/h (0 Bft)
18.04.2010 22:00 19,5 C 14,4 C 0,0 UV-I 0,0 C 39 % 50 % 0 % 1013,1 hPa 0,0 l/m 0,4 km/h (0 Bft) 0 min 0,0 km/h (0 Bft)
18.04.2010 22:02 19,4 C 14,3 C 0,0 UV-I 0,0 C 39 % 50 % 0 % 1013,1 hPa 0,0 l/m 0,4 km/h (0 Bft) 0 min 4,0 km/h (1 Bft)
18.04.2010 22:04 19,4 C 14,3 C 0,0 UV-I 0,0 C 39 % 50 % 0 % 1013,1 hPa 0,0 l/m 0,4 km/h (0 Bft) 0 min 0,0 km/h (0 Bft)
18.04.2010 22:06 19,4 C 14,3 C 0,0 UV-I 0,0 C 39 % 51 % 0 % 1013,1 hPa 0,0 l/m 0,4 km/h (0 Bft) 0 min 0,0 km/h (0 Bft)
18.04.2010 22:12 19,4 C 14,1 C 0,0 UV-I 0,0 C 39 % 52 % 0 % 1013,9 hPa 0,0 l/m 0,0 km/h (0 Bft) 0 min 0,0 km/h (0 Bft)
18.04.2010 22:14 19,4 C 13,9 C 0,0 UV-I 0,0 C 39 % 53 % 0 % 1013,9 hPa 0,0 l/m 0,0 km/h (0 Bft) 0 min 0,0 km/h (0 Bft)
18.04.2010 22:16 19,4 C 13,8 C 0,0 UV-I 0,0 C 39 % 53 % 0 % 1013,9 hPa 0,0 l/m 0,0 km/h (0 Bft) 0 min 0,0 km/h (0 Bft)
18.04.2010 22:18 19,4 C 13,8 C 0,0 UV-I 0,0 C 39 % 53 % 0 % 1013,9 hPa 0,0 l/m 0,0 km/h (0 Bft) 0 min 0,0 km/h (0 Bft)
18.04.2010 22:20 19,2 C 13,7 C 0,0 UV-I 0,0 C 39 % 54 % 0 % 1013,9 hPa 0,0 l/m 0,0 km/h (0 Bft) 0 min 0,0 km/h (0 Bft)
18.04.2010 22:22 19,4 C 13,6 C 0,0 UV-I 0,0 C 39 % 54 % 0 % 1013,9 hPa 0,0 l/m 0,0 km/h (0 Bft) 0 min 0,0 km/h (0 Bft)
18.04.2010 22:24 19,2 C 13,6 C 0,0 UV-I 0,0 C 39 % 54 % 0 % 1013,9 hPa 0,0 l/m 0,0 km/h (0 Bft) 0 min 0,0 km/h (0 Bft)
18.04.2010 22:26 19,2 C 13,5 C 0,0 UV-I 0,0 C 39 % 54 % 0 % 1013,9 hPa 0,0 l/m 0,0 km/h (0 Bft) 0 min 0,0 km/h (0 Bft)
18.04.2010 22:28 19,3 C 13,5 C 0,0 UV-I 0,0 C 39 % 54 % 0 % 1013,9 hPa 0,0 l/m 0,4 km/h (0 Bft) 0 min 4,8 km/h (1 Bft)
18.04.2010 22:30 19,3 C 13,3 C 0,0 UV-I 0,0 C 39 % 54 % 0 % 1013,9 hPa 0,0 l/m 0,4 km/h (0 Bft) 0 min 4,0 km/h (1 Bft)
18.04.2010 22:34 19,2 C 13,2 C 0,0 UV-I 0,0 C 39 % 54 % 0 % 1013,4 hPa 0,0 l/m 0,4 km/h (0 Bft) 0 min 0,0 km/h (0 Bft)
18.04.2010 22:36 19,2 C 13,3 C 0,0 UV-I 0,0 C 39 % 54 % 0 % 1013,4 hPa 0,0 l/m 0,4 km/h (0 Bft) 0 min 0,0 km/h (0 Bft)
18.04.2010 22:38 19,2 C 13,2 C 0,0 UV-I 0,0 C 39 % 55 % 0 % 1013,4 hPa 0,0 l/m 0,4 km/h (0 Bft) 0 min 0,0 km/h (0 Bft)
18.04.2010 22:40 19,2 C 13,1 C 0,0 UV-I 0,0 C 40 % 55 % 0 % 1013,4 hPa 0,0 l/m 0,0 km/h (0 Bft) 0 min 0,0 km/h (0 Bft)
18.04.2010 22:42 19,2 C 13,0 C 0,0 UV-I 0,0 C 40 % 55 % 0 % 1013,4 hPa 0,0 l/m 0,0 km/h (0 Bft) 0 min 0,0 km/h (0 Bft)
18.04.2010 22:44 19,2 C 13,0 C 0,0 UV-I 0,0 C 40 % 56 % 0 % 1013,4 hPa 0,0 l/m 0,0 km/h (0 Bft) 0 min 0,0 km/h (0 Bft)
18.04.2010 22:46 19,2 C 12,9 C 0,0 UV-I 0,0 C 40 % 56 % 0 % 1013,4 hPa 0,0 l/m 0,0 km/h (0 Bft) 0 min 0,0 km/h (0 Bft)
18.04.2010 22:48 19,2 C 12,8 C 0,0 UV-I 0,0 C 40 % 57 % 0 % 1013,4 hPa 0,0 l/m 0,0 km/h (0 Bft) 0 min 0,0 km/h (0 Bft)
18.04.2010 22:50 19,2 C 12,8 C 0,0 UV-I 0,0 C 40 % 57 % 0 % 1013,4 hPa 0,0 l/m 0,0 km/h (0 Bft) 0 min 0,0 km/h (0 Bft)
18.04.2010 22:52 19,2 C 12,7 C 0,0 UV-I 0,0 C 40 % 57 % 0 % 1013,5 hPa 0,0 l/m 0,0 km/h (0 Bft) 0 min 0,0 km/h (0 Bft)
18.04.2010 22:54 19,2 C 12,7 C 0,0 UV-I 0,0 C 40 % 58 % 0 % 1013,5 hPa 0,0 l/m 0,0 km/h (0 Bft) 0 min 0,0 km/h (0 Bft)
18.04.2010 22:56 19,2 C 12,5 C 0,0 UV-I 0,0 C 40 % 58 % 0 % 1013,5 hPa 0,0 l/m 0,0 km/h (0 Bft) 0 min 0,0 km/h (0 Bft)
18.04.2010 22:58 19,1 C 12,5 C 0,0 UV-I 0,0 C 40 % 58 % 0 % 1013,5 hPa 0,0 l/m 0,0 km/h (0 Bft) 0 min 0,0 km/h (0 Bft)
18.04.2010 23:00 19,2 C 12,4 C 0,0 UV-I 0,0 C 40 % 58 % 0 % 1013,5 hPa 0,0 l/m 0,0 km/h (0 Bft) 0 min 0,0 km/h (0 Bft)
18.04.2010 23:02 19,1 C 12,4 C 0,0 UV-I 0,0 C 40 % 58 % 0 % 1013,5 hPa 0,0 l/m 0,0 km/h (0 Bft) 0 min 0,0 km/h (0 Bft)
18.04.2010 23:04 19,1 C 12,3 C 0,0 UV-I 0,0 C 40 % 58 % 0 % 1013,5 hPa 0,0 l/m 0,0 km/h (0 Bft) 0 min 0,0 km/h (0 Bft)
18.04.2010 23:06 19,1 C 12,2 C 0,0 UV-I 0,0 C 40 % 58 % 0 % 1013,5 hPa 0,0 l/m 0,0 km/h (0 Bft) 0 min 4,8 km/h (1 Bft)
18.04.2010 23:08 19,1 C 12,3 C 0,0 UV-I 0,0 C 40 % 58 % 0 % 1013,5 hPa 0,0 l/m 0,4 km/h (0 Bft) 0 min 6,4 km/h (2 Bft)
18.04.2010 23:10 19,1 C 12,1 C 0,0 UV-I 0,0 C 40 % 58 % 0 % 1013,5 hPa 0,0 l/m 0,8 km/h (0 Bft) 0 min 0,0 km/h (0 Bft)
18.04.2010 23:12 19,1 C 12,1 C 0,0 UV-I 0,0 C 40 % 57 % 0 % 1013,5 hPa 0,0 l/m 0,8 km/h (0 Bft) 0 min 4,4 km/h (1 Bft)
18.04.2010 23:14 19,0 C 12,1 C 0,0 UV-I 0,0 C 40 % 57 % 0 % 1013,5 hPa 0,0 l/m 1,2 km/h (1 Bft) 0 min 4,0 km/h (1 Bft)
18.04.2010 23:16 19,0 C 12,0 C 0,0 UV-I 0,0 C 40 % 57 % 0 % 1013,5 hPa 0,0 l/m 1,2 km/h (1 Bft) 0 min 0,0 km/h (0 Bft)
18.04.2010 23:18 19,0 C 12,0 C 0,0 UV-I 0,0 C 40 % 57 % 0 % 1013,5 hPa 0,0 l/m 1,2 km/h (1 Bft) 0 min 0,0 km/h (0 Bft)
18.04.2010 23:20 19,0 C 12,1 C 0,0 UV-I 0,0 C 41 % 57 % 0 % 1013,5 hPa 0,0 l/m 1,2 km/h (1 Bft) 0 min 0,0 km/h (0 Bft)
18.04.2010 23:22 19,0 C 12,0 C 0,0 UV-I 0,0 C 41 % 57 % 0 % 1013,5 hPa 0,0 l/m 1,2 km/h (1 Bft) 0 min 0,0 km/h (0 Bft)
18.04.2010 23:24 19,0 C 11,9 C 0,0 UV-I 0,0 C 41 % 57 % 0 % 1013,5 hPa 0,0 l/m 1,6 km/h (1 Bft) 0 min 6,0 km/h (2 Bft)
18.04.2010 23:26 19,0 C 11,9 C 0,0 UV-I 0,0 C 41 % 56 % 0 % 1013,5 hPa 0,0 l/m 2,0 km/h (1 Bft) 0 min 4,4 km/h (1 Bft)
18.04.2010 23:28 19,0 C 11,8 C 0,0 UV-I 0,0 C 41 % 56 % 0 % 1013,5 hPa 0,0 l/m 2,8 km/h (1 Bft) 0 min 10,8 km/h (2 Bft)
18.04.2010 23:30 19,0 C 11,9 C 0,0 UV-I 0,0 C 41 % 56 % 0 % 1013,5 hPa 0,0 l/m 3,6 km/h (1 Bft) 0 min 6,8 km/h (2 Bft)
18.04.2010 23:32 18,9 C 11,9 C 0,0 UV-I 0,0 C 40 % 56 % 0 % 1013,8 hPa 0,0 l/m 4,0 km/h (1 Bft) 0 min 4,4 km/h (1 Bft)
18.04.2010 23:34 19,0 C 11,8 C 0,0 UV-I 0,0 C 41 % 56 % 0 % 1013,8 hPa 0,0 l/m 4,4 km/h (1 Bft) 0 min 4,4 km/h (1 Bft)
18.04.2010 23:36 18,9 C 11,7 C 0,0 UV-I 0,0 C 40 % 56 % 0 % 1013,8 hPa 0,0 l/m 4,4 km/h (1 Bft) 0 min 6,8 km/h (2 Bft)
18.04.2010 23:40 18,9 C 11,6 C 0,0 UV-I 0,0 C 40 % 56 % 0 % 1013,8 hPa 0,0 l/m 4,4 km/h (1 Bft) 0 min 5,2 km/h (1 Bft)
18.04.2010 23:42 18,9 C 11,6 C 0,0 UV-I 0,0 C 40 % 56 % 0 % 1013,8 hPa 0,0 l/m 4,4 km/h (1 Bft) 0 min 6,0 km/h (2 Bft)
18.04.2010 23:44 18,9 C 11,7 C 0,0 UV-I 0,0 C 40 % 56 % 0 % 1013,8 hPa 0,0 l/m 4,4 km/h (1 Bft) 0 min 6,4 km/h (2 Bft)
18.04.2010 23:46 18,9 C 11,6 C 0,0 UV-I 0,0 C 40 % 56 % 0 % 1013,8 hPa 0,0 l/m 4,4 km/h (1 Bft) 0 min 0,0 km/h (0 Bft)
18.04.2010 23:48 18,9 C 11,6 C 0,0 UV-I 0,0 C 40 % 56 % 0 % 1013,8 hPa 0,0 l/m 4,4 km/h (1 Bft) 0 min 6,0 km/h (2 Bft)
18.04.2010 23:50 18,9 C 11,6 C 0,0 UV-I 0,0 C 40 % 56 % 0 % 1013,8 hPa 0,0 l/m 4,8 km/h (1 Bft) 0 min 5,2 km/h (1 Bft)
18.04.2010 23:52 18,9 C 11,5 C 0,0 UV-I 0,0 C 40 % 56 % 0 % 1013,5 hPa 0,0 l/m 4,4 km/h (1 Bft) 0 min 0,0 km/h (0 Bft)
18.04.2010 23:54 18,8 C 11,4 C 0,0 UV-I 0,0 C 41 % 57 % 0 % 1013,5 hPa 0,0 l/m 3,2 km/h (1 Bft) 0 min 6,4 km/h (2 Bft)
18.04.2010 23:56 18,8 C 11,5 C 0,0 UV-I 0,0 C 41 % 57 % 0 % 1013,5 hPa 0,0 l/m 2,8 km/h (1 Bft) 0 min 5,6 km/h (1 Bft)
18.04.2010 23:58 18,8 C 11,4 C 0,0 UV-I 0,0 C 41 % 57 % 0 % 1013,5 hPa 0,0 l/m 2,8 km/h (1 Bft) 0 min 6,4 km/h (2 Bft)
_ Min-Zeit 07:40 07:12 00:00 00:00 16:58 16:32 00:00 20:12 - 00:00 - 00:00
Minimum _ 15,6 C 2,1 C 0,0 UV-I 0,0 C 32 % 25 % 0 % 1012,4 hPa - 0,0 km/h (0 Bft) - 0,0 km/h (0 Bft)
_ Max-Zeit 17:08 15:30 15:16 10:44 07:36 08:06 09:48 14:32 00:00 19:50 09:38 16:32
Maximum _ 23,4 C 23,7 C 13,7 UV-I 11,7 C 45 % 87 % 100 % 1017,9 hPa 0,0 l/m 8,8 km/h
S (2 Bft)
2 min 22,5 km/h
SO (4 Bft)
Durchschnitt _ 18,3 C 12,4 C 3,0 UV-I 2,5 C 41 % 57 % 40 % 1014,9 hPa #0,0 l/m 2,4 km/h (1 Bft) #7:32 h 3,4 km/h (1 Bft)
© 2012 W. Hausmann